Wetterdaten: Dienstag, 25.08.2009
Datum Zeit Temp. Innen Temp. Aussen UV X Diff Temp. Feuchte Inne Feuchte Auss Sonnenschein Luftdruck Regen ab 0,1 Wind Sonnenschein Windben
25.08.2009 00:00 25,0 C 22,7 C 0,0 UV-I 0,0 C 51 % 58 % 0 % 1008,2 hPa 0,0 l/m 0,0 km/h (0 Bft) 0 min 0,0 km/h (0 Bft)
25.08.2009 00:02 24,9 C 22,7 C 0,0 UV-I 0,0 C 51 % 58 % 0 % 1008,2 hPa 0,0 l/m 0,0 km/h (0 Bft) 0 min 0,0 km/h (0 Bft)
25.08.2009 00:04 24,9 C 22,6 C 0,0 UV-I 0,0 C 51 % 59 % 0 % 1008,2 hPa 0,0 l/m 0,0 km/h (0 Bft) 0 min 0,0 km/h (0 Bft)
25.08.2009 00:08 24,9 C 22,7 C 0,0 UV-I 0,0 C 51 % 60 % 0 % 1008,2 hPa 0,0 l/m 0,0 km/h (0 Bft) 0 min 0,0 km/h (0 Bft)
25.08.2009 00:10 24,9 C 22,7 C 0,0 UV-I 0,0 C 51 % 60 % 0 % 1008,2 hPa 0,0 l/m 0,0 km/h (0 Bft) 0 min 0,0 km/h (0 Bft)
25.08.2009 00:12 24,9 C 22,5 C 0,0 UV-I 0,0 C 51 % 61 % 0 % 1008,2 hPa 0,0 l/m 0,0 km/h (0 Bft) 0 min 0,0 km/h (0 Bft)
25.08.2009 00:14 24,9 C 22,5 C 0,0 UV-I 0,0 C 51 % 61 % 0 % 1008,2 hPa 0,0 l/m 0,0 km/h (0 Bft) 0 min 0,0 km/h (0 Bft)
25.08.2009 00:16 24,9 C 22,5 C 0,0 UV-I 0,0 C 51 % 62 % 0 % 1008,6 hPa 0,0 l/m 0,0 km/h (0 Bft) 0 min 0,0 km/h (0 Bft)
25.08.2009 00:18 24,9 C 22,5 C 0,0 UV-I 0,0 C 51 % 62 % 0 % 1008,6 hPa 0,0 l/m 0,0 km/h (0 Bft) 0 min 0,0 km/h (0 Bft)
25.08.2009 00:20 24,9 C 22,4 C 0,0 UV-I 0,0 C 51 % 62 % 0 % 1008,6 hPa 0,0 l/m 0,0 km/h (0 Bft) 0 min 0,0 km/h (0 Bft)
25.08.2009 00:24 24,9 C 22,4 C 0,0 UV-I 0,0 C 51 % 63 % 0 % 1008,6 hPa 0,0 l/m 0,0 km/h (0 Bft) 0 min 2,9 km/h (1 Bft)
25.08.2009 00:26 24,9 C 22,3 C 0,0 UV-I 0,0 C 51 % 62 % 0 % 1008,6 hPa 0,0 l/m 0,2 km/h (0 Bft) 0 min 2,4 km/h (1 Bft)
25.08.2009 00:28 24,9 C 22,3 C 0,0 UV-I 0,0 C 52 % 62 % 0 % 1008,6 hPa 0,0 l/m 0,2 km/h (0 Bft) 0 min 2,4 km/h (1 Bft)
25.08.2009 00:30 24,9 C 22,3 C 0,0 UV-I 0,0 C 52 % 61 % 0 % 1008,6 hPa 0,0 l/m 0,2 km/h (0 Bft) 0 min 0,0 km/h (0 Bft)
25.08.2009 00:32 24,9 C 22,2 C 0,0 UV-I 0,0 C 52 % 60 % 0 % 1008,6 hPa 0,0 l/m 0,2 km/h (0 Bft) 0 min 0,0 km/h (0 Bft)
25.08.2009 00:34 24,8 C 22,2 C 0,0 UV-I 0,0 C 52 % 60 % 0 % 1008,6 hPa 0,0 l/m 0,2 km/h (0 Bft) 0 min 0,0 km/h (0 Bft)
25.08.2009 00:36 24,8 C 22,2 C 0,0 UV-I 0,0 C 52 % 60 % 0 % 1008,3 hPa 0,0 l/m 0,2 km/h (0 Bft) 0 min 0,0 km/h (0 Bft)
25.08.2009 00:38 24,8 C 22,3 C 0,0 UV-I 0,0 C 52 % 60 % 0 % 1008,3 hPa 0,0 l/m 0,2 km/h (0 Bft) 0 min 4,1 km/h (1 Bft)
25.08.2009 00:40 24,8 C 22,2 C 0,0 UV-I 0,0 C 52 % 60 % 0 % 1008,3 hPa 0,0 l/m 0,0 km/h (0 Bft) 0 min 0,0 km/h (0 Bft)
25.08.2009 00:44 24,8 C 22,2 C 0,0 UV-I 0,0 C 51 % 59 % 0 % 1008,3 hPa 0,0 l/m 0,0 km/h (0 Bft) 0 min 0,0 km/h (0 Bft)
25.08.2009 00:46 24,8 C 22,3 C 0,0 UV-I 0,0 C 52 % 59 % 0 % 1008,3 hPa 0,0 l/m 0,0 km/h (0 Bft) 0 min 0,0 km/h (0 Bft)
25.08.2009 00:48 24,8 C 22,3 C 0,0 UV-I 0,0 C 51 % 59 % 0 % 1008,3 hPa 0,0 l/m 0,0 km/h (0 Bft) 0 min 0,0 km/h (0 Bft)
25.08.2009 00:50 24,8 C 22,3 C 0,0 UV-I 0,0 C 51 % 59 % 0 % 1008,3 hPa 0,0 l/m 0,0 km/h (0 Bft) 0 min 0,0 km/h (0 Bft)
25.08.2009 00:52 24,8 C 22,3 C 0,0 UV-I 0,0 C 51 % 59 % 0 % 1008,3 hPa 0,0 l/m 0,0 km/h (0 Bft) 0 min 0,0 km/h (0 Bft)
25.08.2009 00:54 24,8 C 22,2 C 0,0 UV-I 0,0 C 51 % 59 % 0 % 1008,3 hPa 0,0 l/m 0,0 km/h (0 Bft) 0 min 0,0 km/h (0 Bft)
25.08.2009 00:56 24,8 C 22,1 C 0,0 UV-I 0,0 C 51 % 59 % 0 % 1008,5 hPa 0,0 l/m 0,0 km/h (0 Bft) 0 min 0,0 km/h (0 Bft)
25.08.2009 00:58 24,8 C 22,1 C 0,0 UV-I 0,0 C 51 % 59 % 0 % 1008,5 hPa 0,0 l/m 0,0 km/h (0 Bft) 0 min 0,0 km/h (0 Bft)
25.08.2009 01:00 24,8 C 22,0 C 0,0 UV-I 0,0 C 51 % 60 % 0 % 1008,5 hPa 0,0 l/m 0,0 km/h (0 Bft) 0 min 0,0 km/h (0 Bft)
25.08.2009 01:02 24,8 C 22,0 C 0,0 UV-I 0,0 C 51 % 60 % 0 % 1008,5 hPa 0,0 l/m 0,0 km/h (0 Bft) 0 min 0,0 km/h (0 Bft)
25.08.2009 01:04 24,8 C 22,1 C 0,0 UV-I 0,0 C 51 % 60 % 0 % 1008,5 hPa 0,0 l/m 0,0 km/h (0 Bft) 0 min 0,0 km/h (0 Bft)
25.08.2009 01:06 24,8 C 21,9 C 0,0 UV-I 0,0 C 51 % 61 % 0 % 1008,5 hPa 0,0 l/m 0,0 km/h (0 Bft) 0 min 0,0 km/h (0 Bft)
25.08.2009 01:08 24,8 C 21,9 C 0,0 UV-I 0,0 C 51 % 61 % 0 % 1008,5 hPa 0,0 l/m 0,0 km/h (0 Bft) 0 min 0,0 km/h (0 Bft)
25.08.2009 01:10 24,8 C 21,9 C 0,0 UV-I 0,0 C 52 % 61 % 0 % 1008,5 hPa 0,0 l/m 0,0 km/h (0 Bft) 0 min 0,0 km/h (0 Bft)
25.08.2009 01:12 24,8 C 21,9 C 0,0 UV-I 0,0 C 51 % 62 % 0 % 1008,5 hPa 0,0 l/m 0,0 km/h (0 Bft) 0 min 0,0 km/h (0 Bft)
25.08.2009 01:14 24,8 C 21,7 C 0,0 UV-I 0,0 C 52 % 62 % 0 % 1008,5 hPa 0,0 l/m 0,0 km/h (0 Bft) 0 min 0,0 km/h (0 Bft)
25.08.2009 01:16 24,8 C 21,6 C 0,0 UV-I 0,0 C 52 % 62 % 0 % 1008,4 hPa 0,0 l/m 0,0 km/h (0 Bft) 0 min 0,0 km/h (0 Bft)
25.08.2009 01:18 24,8 C 21,7 C 0,0 UV-I 0,0 C 52 % 62 % 0 % 1008,4 hPa 0,0 l/m 0,0 km/h (0 Bft) 0 min 0,0 km/h (0 Bft)
25.08.2009 01:20 24,8 C 21,5 C 0,0 UV-I 0,0 C 52 % 62 % 0 % 1008,4 hPa 0,0 l/m 0,0 km/h (0 Bft) 0 min 0,0 km/h (0 Bft)
25.08.2009 01:22 24,8 C 21,5 C 0,0 UV-I 0,0 C 52 % 62 % 0 % 1008,4 hPa 0,0 l/m 0,0 km/h (0 Bft) 0 min 0,0 km/h (0 Bft)
25.08.2009 01:24 24,8 C 21,5 C 0,0 UV-I 0,0 C 52 % 62 % 0 % 1008,4 hPa 0,0 l/m 0,0 km/h (0 Bft) 0 min 0,0 km/h (0 Bft)
25.08.2009 01:26 24,8 C 21,5 C 0,0 UV-I 0,0 C 52 % 62 % 0 % 1008,4 hPa 0,0 l/m 0,0 km/h (0 Bft) 0 min 0,0 km/h (0 Bft)
25.08.2009 01:28 24,7 C 21,3 C 0,0 UV-I 0,0 C 52 % 62 % 0 % 1008,4 hPa 0,0 l/m 0,0 km/h (0 Bft) 0 min 0,0 km/h (0 Bft)
25.08.2009 01:30 24,7 C 21,3 C 0,0 UV-I 0,0 C 52 % 62 % 0 % 1008,4 hPa 0,0 l/m 0,0 km/h (0 Bft) 0 min 0,0 km/h (0 Bft)
25.08.2009 01:32 24,7 C 21,2 C 0,0 UV-I 0,0 C 52 % 63 % 0 % 1008,4 hPa 0,0 l/m 0,0 km/h (0 Bft) 0 min 0,0 km/h (0 Bft)
25.08.2009 01:34 24,7 C 21,2 C 0,0 UV-I 0,0 C 52 % 63 % 0 % 1008,4 hPa 0,0 l/m 0,0 km/h (0 Bft) 0 min 0,0 km/h (0 Bft)
25.08.2009 01:36 24,7 C 21,1 C 0,0 UV-I 0,0 C 52 % 63 % 0 % 1008,3 hPa 0,0 l/m 0,0 km/h (0 Bft) 0 min 0,0 km/h (0 Bft)
25.08.2009 01:38 24,7 C 21,1 C 0,0 UV-I 0,0 C 52 % 64 % 0 % 1008,3 hPa 0,0 l/m 0,0 km/h (0 Bft) 0 min 0,0 km/h (0 Bft)
25.08.2009 01:40 24,7 C 21,0 C 0,0 UV-I 0,0 C 52 % 64 % 0 % 1008,3 hPa 0,0 l/m 0,0 km/h (0 Bft) 0 min 0,0 km/h (0 Bft)
25.08.2009 01:42 24,7 C 21,0 C 0,0 UV-I 0,0 C 52 % 64 % 0 % 1008,3 hPa 0,0 l/m 0,0 km/h (0 Bft) 0 min 0,0 km/h (0 Bft)
25.08.2009 01:44 24,7 C 20,9 C 0,0 UV-I 0,0 C 52 % 64 % 0 % 1008,3 hPa 0,0 l/m 0,0 km/h (0 Bft) 0 min 0,0 km/h (0 Bft)
25.08.2009 01:46 24,7 C 20,9 C 0,0 UV-I 0,0 C 52 % 64 % 0 % 1008,3 hPa 0,0 l/m 0,0 km/h (0 Bft) 0 min 0,0 km/h (0 Bft)
25.08.2009 01:48 24,6 C 20,9 C 0,0 UV-I 0,0 C 52 % 64 % 0 % 1008,3 hPa 0,0 l/m 0,0 km/h (0 Bft) 0 min 0,0 km/h (0 Bft)
25.08.2009 01:50 24,6 C 20,8 C 0,0 UV-I 0,0 C 52 % 65 % 0 % 1008,3 hPa 0,0 l/m 0,0 km/h (0 Bft) 0 min 0,0 km/h (0 Bft)
25.08.2009 01:52 24,6 C 20,7 C 0,0 UV-I 0,0 C 52 % 65 % 0 % 1008,3 hPa 0,0 l/m 0,0 km/h (0 Bft) 0 min 0,0 km/h (0 Bft)
25.08.2009 01:56 24,6 C 20,7 C 0,0 UV-I 0,0 C 52 % 65 % 0 % 1008,4 hPa 0,0 l/m 0,0 km/h (0 Bft) 0 min 0,0 km/h (0 Bft)
25.08.2009 02:00 24,6 C 20,6 C 0,0 UV-I 0,0 C 52 % 65 % 0 % 1008,4 hPa 0,0 l/m 0,0 km/h (0 Bft) 0 min 0,0 km/h (0 Bft)
25.08.2009 02:02 24,6 C 20,5 C 0,0 UV-I 0,0 C 52 % 65 % 0 % 1008,4 hPa 0,0 l/m 0,0 km/h (0 Bft) 0 min 0,0 km/h (0 Bft)
25.08.2009 02:04 24,6 C 20,5 C 0,0 UV-I 0,0 C 52 % 65 % 0 % 1008,4 hPa 0,0 l/m 0,0 km/h (0 Bft) 0 min 0,0 km/h (0 Bft)
25.08.2009 02:06 24,6 C 20,4 C 0,0 UV-I 0,0 C 52 % 65 % 0 % 1008,4 hPa 0,0 l/m 0,0 km/h (0 Bft) 0 min 0,0 km/h (0 Bft)
25.08.2009 02:08 24,6 C 20,4 C 0,0 UV-I 0,0 C 52 % 65 % 0 % 1008,4 hPa 0,0 l/m 0,0 km/h (0 Bft) 0 min 0,0 km/h (0 Bft)
25.08.2009 02:10 24,6 C 20,4 C 0,0 UV-I 0,0 C 52 % 65 % 0 % 1008,4 hPa 0,0 l/m 0,0 km/h (0 Bft) 0 min 0,0 km/h (0 Bft)
25.08.2009 02:12 24,6 C 20,4 C 0,0 UV-I 0,0 C 52 % 65 % 0 % 1008,4 hPa 0,0 l/m 0,0 km/h (0 Bft) 0 min 0,0 km/h (0 Bft)
25.08.2009 02:14 24,6 C 20,4 C 0,0 UV-I 0,0 C 52 % 66 % 0 % 1008,4 hPa 0,0 l/m 0,0 km/h (0 Bft) 0 min 0,0 km/h (0 Bft)
25.08.2009 02:18 24,5 C 20,3 C 0,0 UV-I 0,0 C 52 % 66 % 0 % 1007,9 hPa 0,0 l/m 0,0 km/h (0 Bft) 0 min 0,0 km/h (0 Bft)
25.08.2009 02:20 24,5 C 20,3 C 0,0 UV-I 0,0 C 52 % 66 % 0 % 1007,9 hPa 0,0 l/m 0,0 km/h (0 Bft) 0 min 0,0 km/h (0 Bft)
25.08.2009 02:22 24,5 C 20,3 C 0,0 UV-I 0,0 C 52 % 67 % 0 % 1007,9 hPa 0,0 l/m 0,2 km/h (0 Bft) 0 min 2,4 km/h (1 Bft)
25.08.2009 02:24 24,5 C 20,2 C 0,0 UV-I 0,0 C 52 % 67 % 0 % 1007,9 hPa 0,0 l/m 0,2 km/h (0 Bft) 0 min 2,4 km/h (1 Bft)
25.08.2009 02:26 24,5 C 20,2 C 0,0 UV-I 0,0 C 53 % 67 % 0 % 1007,9 hPa 0,0 l/m 0,5 km/h (0 Bft) 0 min 2,4 km/h (1 Bft)
25.08.2009 02:28 24,5 C 20,3 C 0,0 UV-I 0,0 C 53 % 67 % 0 % 1007,9 hPa 0,0 l/m 0,5 km/h (0 Bft) 0 min 0,0 km/h (0 Bft)
25.08.2009 02:30 24,5 C 20,3 C 0,0 UV-I 0,0 C 53 % 67 % 0 % 1007,9 hPa 0,0 l/m 0,5 km/h (0 Bft) 0 min 0,0 km/h (0 Bft)
25.08.2009 02:32 24,5 C 20,3 C 0,0 UV-I 0,0 C 53 % 67 % 0 % 1007,9 hPa 0,0 l/m 0,5 km/h (0 Bft) 0 min 0,0 km/h (0 Bft)
25.08.2009 02:36 24,5 C 20,3 C 0,0 UV-I 0,0 C 53 % 67 % 0 % 1008,1 hPa 0,0 l/m 0,2 km/h (0 Bft) 0 min 0,0 km/h (0 Bft)
25.08.2009 02:38 24,5 C 20,2 C 0,0 UV-I 0,0 C 53 % 67 % 0 % 1008,1 hPa 0,0 l/m 0,2 km/h (0 Bft) 0 min 0,0 km/h (0 Bft)
25.08.2009 02:40 24,4 C 20,2 C 0,0 UV-I 0,0 C 53 % 67 % 0 % 1008,1 hPa 0,0 l/m 0,0 km/h (0 Bft) 0 min 0,0 km/h (0 Bft)
25.08.2009 02:42 24,5 C 20,2 C 0,0 UV-I 0,0 C 53 % 67 % 0 % 1008,1 hPa 0,0 l/m 0,0 km/h (0 Bft) 0 min 0,0 km/h (0 Bft)
25.08.2009 02:44 24,4 C 20,1 C 0,0 UV-I 0,0 C 53 % 68 % 0 % 1008,1 hPa 0,0 l/m 0,0 km/h (0 Bft) 0 min 0,0 km/h (0 Bft)
25.08.2009 02:46 24,4 C 20,1 C 0,0 UV-I 0,0 C 53 % 68 % 0 % 1008,1 hPa 0,0 l/m 0,0 km/h (0 Bft) 0 min 0,0 km/h (0 Bft)
25.08.2009 02:48 24,4 C 20,1 C 0,0 UV-I 0,0 C 53 % 68 % 0 % 1008,1 hPa 0,0 l/m 0,0 km/h (0 Bft) 0 min 0,0 km/h (0 Bft)
25.08.2009 02:50 24,4 C 20,1 C 0,0 UV-I 0,0 C 53 % 69 % 0 % 1008,1 hPa 0,0 l/m 0,0 km/h (0 Bft) 0 min 0,0 km/h (0 Bft)
25.08.2009 02:52 24,4 C 20,1 C 0,0 UV-I 0,0 C 53 % 69 % 0 % 1008,1 hPa 0,0 l/m 0,0 km/h (0 Bft) 0 min 0,0 km/h (0 Bft)
25.08.2009 02:56 24,4 C 20,1 C 0,0 UV-I 0,0 C 53 % 69 % 0 % 1008,9 hPa 0,0 l/m 0,0 km/h (0 Bft) 0 min 0,0 km/h (0 Bft)
25.08.2009 02:58 24,4 C 20,1 C 0,0 UV-I 0,0 C 53 % 69 % 0 % 1008,9 hPa 0,0 l/m 0,0 km/h (0 Bft) 0 min 0,0 km/h (0 Bft)
25.08.2009 03:00 24,4 C 20,1 C 0,0 UV-I 0,0 C 53 % 69 % 0 % 1008,9 hPa 0,0 l/m 0,0 km/h (0 Bft) 0 min 0,0 km/h (0 Bft)
25.08.2009 03:02 24,4 C 20,1 C 0,0 UV-I 0,0 C 53 % 68 % 0 % 1008,9 hPa 0,0 l/m 0,0 km/h (0 Bft) 0 min 0,0 km/h (0 Bft)
25.08.2009 03:04 24,4 C 20,1 C 0,0 UV-I 0,0 C 53 % 68 % 0 % 1008,9 hPa 0,0 l/m 0,0 km/h (0 Bft) 0 min 0,0 km/h (0 Bft)
25.08.2009 03:06 24,4 C 20,1 C 0,0 UV-I 0,0 C 53 % 68 % 0 % 1008,9 hPa 0,0 l/m 0,0 km/h (0 Bft) 0 min 0,0 km/h (0 Bft)
25.08.2009 03:08 24,4 C 20,1 C 0,0 UV-I 0,0 C 53 % 68 % 0 % 1008,9 hPa 0,0 l/m 0,5 km/h (0 Bft) 0 min 2,4 km/h (1 Bft)
25.08.2009 03:10 24,4 C 20,1 C 0,0 UV-I 0,0 C 53 % 67 % 0 % 1008,9 hPa 0,0 l/m 0,5 km/h (0 Bft) 0 min 5,3 km/h (1 Bft)
25.08.2009 03:12 24,4 C 20,2 C 0,0 UV-I 0,0 C 53 % 68 % 0 % 1008,9 hPa 0,0 l/m 0,7 km/h (0 Bft) 0 min 3,1 km/h (1 Bft)
25.08.2009 03:14 24,4 C 20,2 C 0,0 UV-I 0,0 C 53 % 67 % 0 % 1008,9 hPa 0,0 l/m 1,2 km/h (1 Bft) 0 min 3,1 km/h (1 Bft)
25.08.2009 03:16 24,4 C 20,3 C 0,0 UV-I 0,0 C 53 % 68 % 0 % 1009,6 hPa 0,0 l/m 1,4 km/h (1 Bft) 0 min 3,1 km/h (1 Bft)
25.08.2009 03:18 24,4 C 20,2 C 0,0 UV-I 0,1 C 53 % 67 % 0 % 1009,6 hPa 0,0 l/m 1,2 km/h (1 Bft) 0 min 2,4 km/h (1 Bft)
25.08.2009 03:20 24,4 C 20,2 C 0,0 UV-I 0,1 C 53 % 67 % 0 % 1009,6 hPa 0,0 l/m 1,0 km/h (0 Bft) 0 min 2,4 km/h (1 Bft)
25.08.2009 03:22 24,4 C 20,2 C 0,0 UV-I 0,1 C 53 % 67 % 0 % 1009,6 hPa 0,0 l/m 1,0 km/h (0 Bft) 0 min 0,0 km/h (0 Bft)
25.08.2009 03:24 24,4 C 20,3 C 0,0 UV-I 0,0 C 53 % 68 % 0 % 1009,6 hPa 0,0 l/m 0,7 km/h (0 Bft) 0 min 2,9 km/h (1 Bft)
25.08.2009 03:26 24,4 C 20,3 C 0,0 UV-I 0,0 C 53 % 68 % 0 % 1009,6 hPa 0,0 l/m 0,5 km/h (0 Bft) 0 min 2,9 km/h (1 Bft)
25.08.2009 03:28 24,4 C 20,3 C 0,0 UV-I 0,0 C 53 % 69 % 0 % 1009,6 hPa 0,0 l/m 0,7 km/h (0 Bft) 0 min 0,0 km/h (0 Bft)
25.08.2009 03:30 24,4 C 20,3 C 0,0 UV-I 0,0 C 53 % 69 % 0 % 1009,6 hPa 0,0 l/m 1,2 km/h (1 Bft) 0 min 7,2 km/h (2 Bft)
25.08.2009 03:32 24,4 C 20,3 C 0,0 UV-I 0,0 C 53 % 69 % 0 % 1009,6 hPa 0,0 l/m 1,7 km/h (1 Bft) 0 min 7,2 km/h (2 Bft)
25.08.2009 03:34 24,4 C 20,3 C 0,0 UV-I 0,0 C 53 % 69 % 0 % 1009,6 hPa 0,0 l/m 2,2 km/h (1 Bft) 0 min 5,1 km/h (1 Bft)
25.08.2009 03:36 24,4 C 20,3 C 0,0 UV-I 0,0 C 54 % 69 % 0 % 1010,1 hPa 0,0 l/m 1,9 km/h (1 Bft) 0 min 5,1 km/h (1 Bft)
25.08.2009 03:38 24,4 C 20,3 C 0,0 UV-I 0,0 C 54 % 70 % 0 % 1010,1 hPa 0,0 l/m 1,7 km/h (1 Bft) 0 min 0,0 km/h (0 Bft)
25.08.2009 03:40 24,4 C 20,3 C 0,0 UV-I 0,0 C 54 % 70 % 0 % 1010,1 hPa 0,0 l/m 1,4 km/h (1 Bft) 0 min 0,0 km/h (0 Bft)
25.08.2009 03:42 24,4 C 20,3 C 0,0 UV-I 0,0 C 54 % 70 % 0 % 1010,1 hPa 0,0 l/m 1,2 km/h (1 Bft) 0 min 0,0 km/h (0 Bft)
25.08.2009 03:44 24,4 C 20,3 C 0,0 UV-I 0,0 C 54 % 70 % 0 % 1010,1 hPa 0,0 l/m 1,0 km/h (0 Bft) 0 min 0,0 km/h (0 Bft)
25.08.2009 03:46 24,4 C 20,3 C 0,0 UV-I 0,0 C 54 % 70 % 0 % 1010,1 hPa 0,0 l/m 1,0 km/h (0 Bft) 0 min 2,4 km/h (1 Bft)
25.08.2009 03:48 24,2 C 20,3 C 0,0 UV-I 0,0 C 54 % 70 % 0 % 1010,1 hPa 0,0 l/m 1,4 km/h (1 Bft) 0 min 7,5 km/h (2 Bft)
25.08.2009 03:50 24,2 C 20,3 C 0,0 UV-I 0,0 C 54 % 70 % 0 % 1010,1 hPa 0,0 l/m 1,7 km/h (1 Bft) 0 min 7,5 km/h (2 Bft)
25.08.2009 03:52 24,2 C 20,3 C 0,0 UV-I 0,0 C 54 % 70 % 0 % 1010,1 hPa 0,0 l/m 2,4 km/h (1 Bft) 0 min 7,9 km/h (2 Bft)
25.08.2009 03:54 24,2 C 20,3 C 0,0 UV-I 0,0 C 54 % 70 % 0 % 1010,1 hPa 0,0 l/m 2,6 km/h (1 Bft) 0 min 5,8 km/h (2 Bft)
25.08.2009 03:56 24,3 C 20,2 C 0,0 UV-I 0,0 C 54 % 71 % 0 % 1010,2 hPa 0,0 l/m 3,1 km/h (1 Bft) 0 min 5,8 km/h (2 Bft)
25.08.2009 03:58 24,2 C 20,2 C 0,0 UV-I 0,0 C 54 % 71 % 0 % 1010,2 hPa 0,0 l/m 3,6 km/h (1 Bft) 0 min 4,3 km/h (1 Bft)
25.08.2009 04:00 24,3 C 20,2 C 0,0 UV-I 0,0 C 54 % 72 % 0 % 1010,2 hPa 0,0 l/m 3,8 km/h (1 Bft) 0 min 4,3 km/h (1 Bft)
25.08.2009 04:02 24,3 C 20,3 C 0,0 UV-I 0,0 C 55 % 72 % 0 % 1010,2 hPa 0,0 l/m 3,8 km/h (1 Bft) 0 min 14,0 km/h (3 Bft)
25.08.2009 04:04 24,3 C 20,3 C 0,0 UV-I 0,0 C 54 % 73 % 0 % 1010,2 hPa 0,0 l/m 3,6 km/h (1 Bft) 0 min 10,3 km/h (2 Bft)
25.08.2009 04:06 24,3 C 20,2 C 0,0 UV-I 0,0 C 55 % 74 % 0 % 1010,2 hPa 0,0 l/m 3,8 km/h (1 Bft) 0 min 10,3 km/h (2 Bft)
25.08.2009 04:09 24,3 C 20,0 C 0,0 UV-I 0,0 C 55 % 74 % 0 % 1010,2 hPa 0,0 l/m 3,6 km/h (1 Bft) 0 min 2,6 km/h (1 Bft)
25.08.2009 04:15 24,2 C 20,0 C 0,0 UV-I 0,0 C 55 % 74 % 0 % 1010,2 hPa 0,0 l/m 3,1 km/h (1 Bft) 0 min 0,0 km/h (0 Bft)
25.08.2009 04:16 24,3 C 19,9 C 0,0 UV-I 0,0 C 55 % 75 % 0 % 1009,9 hPa 0,0 l/m 2,4 km/h (1 Bft) 0 min 2,6 km/h (1 Bft)
25.08.2009 04:18 24,2 C 19,9 C 0,0 UV-I 0,0 C 55 % 75 % 0 % 1009,9 hPa 0,0 l/m 1,7 km/h (1 Bft) 0 min 2,6 km/h (1 Bft)
25.08.2009 04:20 24,2 C 19,8 C 0,0 UV-I 0,0 C 55 % 76 % 0 % 1009,9 hPa 0,0 l/m 1,2 km/h (1 Bft) 0 min 3,1 km/h (1 Bft)
25.08.2009 04:22 24,2 C 19,8 C 0,0 UV-I 0,0 C 56 % 76 % 0 % 1009,9 hPa 0,0 l/m 1,7 km/h (1 Bft) 0 min 3,1 km/h (1 Bft)
25.08.2009 04:24 24,2 C 19,8 C 0,0 UV-I 0,0 C 56 % 76 % 0 % 1009,9 hPa 0,0 l/m 1,4 km/h (1 Bft) 0 min 4,8 km/h (1 Bft)
25.08.2009 04:26 24,2 C 19,7 C 0,0 UV-I 0,0 C 56 % 76 % 0 % 1009,9 hPa 0,0 l/m 1,7 km/h (1 Bft) 0 min 4,8 km/h (1 Bft)
25.08.2009 04:28 24,2 C 19,7 C 0,0 UV-I 0,0 C 56 % 76 % 0 % 1009,9 hPa 0,0 l/m 1,7 km/h (1 Bft) 0 min 0,0 km/h (0 Bft)
25.08.2009 04:30 24,2 C 19,6 C 0,0 UV-I 0,0 C 56 % 76 % 0 % 1009,9 hPa 0,0 l/m 2,2 km/h (1 Bft) 0 min 4,1 km/h (1 Bft)
25.08.2009 04:32 24,2 C 19,6 C 0,0 UV-I 0,0 C 56 % 77 % 0 % 1009,9 hPa 0,0 l/m 1,9 km/h (1 Bft) 0 min 4,1 km/h (1 Bft)
25.08.2009 04:34 24,2 C 19,7 C 0,0 UV-I 0,0 C 56 % 77 % 0 % 1009,9 hPa 0,0 l/m 1,4 km/h (1 Bft) 0 min 2,9 km/h (1 Bft)
25.08.2009 04:36 24,2 C 19,6 C 0,0 UV-I 0,0 C 56 % 77 % 0 % 1010,4 hPa 0,0 l/m 1,7 km/h (1 Bft) 0 min 4,6 km/h (1 Bft)
25.08.2009 04:38 24,2 C 19,5 C 0,0 UV-I 0,0 C 57 % 78 % 0 % 1010,4 hPa 0,0 l/m 1,7 km/h (1 Bft) 0 min 4,6 km/h (1 Bft)
25.08.2009 04:40 24,2 C 19,5 C 0,0 UV-I 0,0 C 57 % 78 % 0 % 1010,4 hPa 0,0 l/m 1,2 km/h (1 Bft) 0 min 0,0 km/h (0 Bft)
25.08.2009 04:42 24,1 C 19,5 C 0,0 UV-I 0,0 C 57 % 78 % 0 % 1010,4 hPa 0,0 l/m 1,0 km/h (0 Bft) 0 min 0,0 km/h (0 Bft)
25.08.2009 04:44 24,1 C 19,5 C 0,0 UV-I 0,0 C 57 % 78 % 0 % 1010,4 hPa 0,0 l/m 1,0 km/h (0 Bft) 0 min 0,0 km/h (0 Bft)
25.08.2009 04:46 24,1 C 19,5 C 0,0 UV-I 0,0 C 57 % 78 % 0 % 1010,4 hPa 0,0 l/m 0,7 km/h (0 Bft) 0 min 7,9 km/h (2 Bft)
25.08.2009 04:48 24,1 C 19,3 C 0,0 UV-I 0,0 C 57 % 79 % 0 % 1010,4 hPa 0,0 l/m 1,2 km/h (1 Bft) 0 min 7,9 km/h (2 Bft)
25.08.2009 04:50 24,1 C 19,3 C 0,0 UV-I 0,0 C 57 % 79 % 0 % 1010,4 hPa 0,1 l/m 1,2 km/h (1 Bft) 0 min 7,5 km/h (2 Bft)
25.08.2009 04:52 24,1 C 19,3 C 0,0 UV-I 0,0 C 57 % 80 % 0 % 1010,4 hPa 0,1 l/m 1,4 km/h (1 Bft) 0 min 0,0 km/h (0 Bft)
25.08.2009 04:54 24,1 C 19,2 C 0,0 UV-I 0,0 C 57 % 80 % 0 % 1010,4 hPa 0,0 l/m 1,4 km/h (1 Bft) 0 min 3,4 km/h (1 Bft)
25.08.2009 04:56 24,1 C 19,3 C 0,0 UV-I 0,0 C 57 % 81 % 0 % 1010,5 hPa 0,2 l/m 1,4 km/h (1 Bft) 0 min 3,4 km/h (1 Bft)
25.08.2009 04:58 24,1 C 19,1 C 0,0 UV-I 0,0 C 57 % 80 % 0 % 1010,5 hPa 0,0 l/m 1,0 km/h (0 Bft) 0 min 0,0 km/h (0 Bft)
25.08.2009 05:00 24,1 C 19,1 C 0,0 UV-I 0,0 C 58 % 80 % 0 % 1010,5 hPa 0,1 l/m 0,7 km/h (0 Bft) 0 min 0,0 km/h (0 Bft)
25.08.2009 05:02 24,1 C 19,1 C 0,0 UV-I 0,0 C 58 % 81 % 0 % 1010,5 hPa 0,2 l/m 0,7 km/h (0 Bft) 0 min 3,1 km/h (1 Bft)
25.08.2009 05:04 24,0 C 19,0 C 0,0 UV-I 0,0 C 58 % 81 % 0 % 1010,5 hPa 0,0 l/m 0,5 km/h (0 Bft) 0 min 3,1 km/h (1 Bft)
25.08.2009 05:06 24,0 C 19,1 C 0,0 UV-I 0,0 C 58 % 81 % 0 % 1010,5 hPa 0,2 l/m 0,5 km/h (0 Bft) 0 min 0,0 km/h (0 Bft)
25.08.2009 05:10 24,0 C 19,0 C 0,0 UV-I 0,0 C 58 % 81 % 0 % 1010,5 hPa 0,1 l/m 0,2 km/h (0 Bft) 0 min 0,0 km/h (0 Bft)
25.08.2009 05:12 24,0 C 18,9 C 0,0 UV-I 0,0 C 58 % 81 % 0 % 1010,5 hPa 0,1 l/m 0,2 km/h (0 Bft) 0 min 0,0 km/h (0 Bft)
25.08.2009 05:14 24,0 C 18,9 C 0,0 UV-I 0,0 C 58 % 82 % 0 % 1010,5 hPa 0,1 l/m 0,0 km/h (0 Bft) 0 min 2,4 km/h (1 Bft)
25.08.2009 05:16 24,0 C 18,8 C 0,0 UV-I 0,0 C 58 % 82 % 0 % 1010,1 hPa 0,0 l/m 0,0 km/h (0 Bft) 0 min 2,4 km/h (1 Bft)
25.08.2009 05:18 24,0 C 18,8 C 0,0 UV-I 0,0 C 58 % 82 % 0 % 1010,1 hPa 0,1 l/m 0,0 km/h (0 Bft) 0 min 0,0 km/h (0 Bft)
25.08.2009 05:20 24,0 C 18,9 C 0,0 UV-I 0,0 C 58 % 82 % 0 % 1010,1 hPa 0,1 l/m 0,0 km/h (0 Bft) 0 min 0,0 km/h (0 Bft)
25.08.2009 05:22 24,0 C 18,8 C 0,0 UV-I 0,0 C 58 % 82 % 0 % 1010,1 hPa 0,0 l/m 0,0 km/h (0 Bft) 0 min 0,0 km/h (0 Bft)
25.08.2009 05:24 24,0 C 18,7 C 0,0 UV-I 0,0 C 58 % 82 % 0 % 1010,1 hPa 0,1 l/m 0,0 km/h (0 Bft) 0 min 0,0 km/h (0 Bft)
25.08.2009 05:26 24,0 C 18,7 C 0,0 UV-I 0,0 C 58 % 83 % 0 % 1010,1 hPa 0,0 l/m 0,0 km/h (0 Bft) 0 min 0,0 km/h (0 Bft)
25.08.2009 05:28 24,0 C 18,7 C 0,0 UV-I 0,0 C 58 % 83 % 0 % 1010,1 hPa 0,0 l/m 0,0 km/h (0 Bft) 0 min 0,0 km/h (0 Bft)
25.08.2009 05:30 24,0 C 18,6 C 0,0 UV-I 0,0 C 58 % 83 % 0 % 1010,1 hPa 0,1 l/m 0,0 km/h (0 Bft) 0 min 0,0 km/h (0 Bft)
25.08.2009 05:32 24,0 C 18,6 C 0,0 UV-I 0,0 C 58 % 83 % 0 % 1010,1 hPa 0,0 l/m 0,0 km/h (0 Bft) 0 min 0,0 km/h (0 Bft)
25.08.2009 05:34 24,0 C 18,7 C 0,0 UV-I 0,0 C 58 % 83 % 0 % 1010,1 hPa 0,0 l/m 0,0 km/h (0 Bft) 0 min 0,0 km/h (0 Bft)
25.08.2009 05:36 24,0 C 18,6 C 0,0 UV-I 0,0 C 59 % 84 % 0 % 1009,9 hPa 0,0 l/m 0,0 km/h (0 Bft) 0 min 0,0 km/h (0 Bft)
25.08.2009 05:38 23,9 C 18,6 C 0,0 UV-I 0,0 C 59 % 84 % 0 % 1009,9 hPa 0,0 l/m 0,0 km/h (0 Bft) 0 min 0,0 km/h (0 Bft)
25.08.2009 05:40 23,9 C 18,6 C 0,0 UV-I 0,0 C 59 % 84 % 0 % 1009,9 hPa 0,0 l/m 0,0 km/h (0 Bft) 0 min 0,0 km/h (0 Bft)
25.08.2009 05:42 23,9 C 18,5 C 0,0 UV-I 0,0 C 59 % 84 % 0 % 1009,9 hPa 0,0 l/m 0,0 km/h (0 Bft) 0 min 0,0 km/h (0 Bft)
25.08.2009 05:44 23,9 C 18,4 C 0,0 UV-I 0,0 C 59 % 84 % 0 % 1009,9 hPa 0,0 l/m 0,0 km/h (0 Bft) 0 min 0,0 km/h (0 Bft)
25.08.2009 05:46 23,9 C 18,4 C 0,0 UV-I 0,0 C 59 % 84 % 0 % 1009,9 hPa 0,0 l/m 0,0 km/h (0 Bft) 0 min 0,0 km/h (0 Bft)
25.08.2009 05:48 23,9 C 18,4 C 0,0 UV-I 0,0 C 59 % 84 % 0 % 1009,9 hPa 0,0 l/m 0,0 km/h (0 Bft) 0 min 0,0 km/h (0 Bft)
25.08.2009 05:50 23,9 C 18,5 C 0,0 UV-I 0,0 C 59 % 84 % 0 % 1009,9 hPa 0,0 l/m 0,0 km/h (0 Bft) 0 min 0,0 km/h (0 Bft)
25.08.2009 05:52 23,9 C 18,4 C 0,0 UV-I 0,0 C 58 % 84 % 0 % 1009,9 hPa 0,0 l/m 0,0 km/h (0 Bft) 0 min 0,0 km/h (0 Bft)
25.08.2009 05:54 23,9 C 18,4 C 0,0 UV-I 0,0 C 58 % 84 % 0 % 1009,9 hPa 0,0 l/m 0,0 km/h (0 Bft) 0 min 0,0 km/h (0 Bft)
25.08.2009 05:56 23,9 C 18,3 C 0,0 UV-I 0,0 C 58 % 84 % 0 % 1009,7 hPa 0,0 l/m 0,0 km/h (0 Bft) 0 min 0,0 km/h (0 Bft)
25.08.2009 05:58 23,9 C 18,3 C 0,0 UV-I 0,0 C 58 % 85 % 0 % 1009,7 hPa 0,0 l/m 0,0 km/h (0 Bft) 0 min 0,0 km/h (0 Bft)
25.08.2009 06:00 23,9 C 18,3 C 0,0 UV-I 0,0 C 58 % 85 % 0 % 1009,7 hPa 0,0 l/m 0,0 km/h (0 Bft) 0 min 0,0 km/h (0 Bft)
25.08.2009 06:02 23,9 C 18,2 C 0,0 UV-I 0,0 C 59 % 85 % 0 % 1009,7 hPa 0,0 l/m 0,0 km/h (0 Bft) 0 min 0,0 km/h (0 Bft)
25.08.2009 06:04 23,9 C 18,2 C 0,0 UV-I 0,0 C 58 % 85 % 0 % 1009,7 hPa 0,0 l/m 0,0 km/h (0 Bft) 0 min 0,0 km/h (0 Bft)
25.08.2009 06:06 23,9 C 18,3 C 0,0 UV-I 0,0 C 59 % 85 % 0 % 1009,7 hPa 0,0 l/m 0,0 km/h (0 Bft) 0 min 0,0 km/h (0 Bft)
25.08.2009 06:08 23,9 C 18,3 C 0,0 UV-I 0,0 C 59 % 85 % 0 % 1009,7 hPa 0,0 l/m 0,0 km/h (0 Bft) 0 min 0,0 km/h (0 Bft)
25.08.2009 06:10 23,9 C 18,3 C 0,0 UV-I 0,0 C 59 % 85 % 0 % 1009,7 hPa 0,0 l/m 0,0 km/h (0 Bft) 0 min 0,0 km/h (0 Bft)
25.08.2009 06:12 23,8 C 18,1 C 0,0 UV-I 0,0 C 59 % 86 % 0 % 1009,7 hPa 0,0 l/m 0,0 km/h (0 Bft) 0 min 0,0 km/h (0 Bft)
25.08.2009 06:14 23,8 C 18,1 C 0,0 UV-I 0,0 C 59 % 86 % 0 % 1009,7 hPa 0,0 l/m 0,0 km/h (0 Bft) 0 min 0,0 km/h (0 Bft)
25.08.2009 06:16 23,9 C 18,1 C 0,0 UV-I 0,0 C 59 % 86 % 0 % 1009,4 hPa 0,0 l/m 0,0 km/h (0 Bft) 0 min 0,0 km/h (0 Bft)
25.08.2009 06:18 23,8 C 18,1 C 0,0 UV-I 0,0 C 59 % 86 % 0 % 1009,4 hPa 0,0 l/m 0,0 km/h (0 Bft) 0 min 0,0 km/h (0 Bft)
25.08.2009 06:20 23,8 C 18,0 C 0,0 UV-I 0,0 C 59 % 86 % 0 % 1009,4 hPa 0,0 l/m 0,0 km/h (0 Bft) 0 min 0,0 km/h (0 Bft)
25.08.2009 06:22 23,8 C 18,0 C 0,0 UV-I 0,0 C 59 % 86 % 0 % 1009,4 hPa 0,0 l/m 0,0 km/h (0 Bft) 0 min 0,0 km/h (0 Bft)
25.08.2009 06:24 23,8 C 18,1 C 0,0 UV-I 0,0 C 59 % 86 % 0 % 1009,4 hPa 0,0 l/m 0,0 km/h (0 Bft) 0 min 0,0 km/h (0 Bft)
25.08.2009 06:26 23,8 C 18,1 C 0,0 UV-I 0,0 C 59 % 86 % 0 % 1009,4 hPa 0,0 l/m 0,0 km/h (0 Bft) 0 min 0,0 km/h (0 Bft)
25.08.2009 06:28 23,8 C 18,0 C 0,0 UV-I 0,0 C 60 % 86 % 0 % 1009,4 hPa 0,0 l/m 0,0 km/h (0 Bft) 0 min 0,0 km/h (0 Bft)
25.08.2009 06:30 23,8 C 18,0 C 0,0 UV-I 0,0 C 60 % 86 % 0 % 1009,4 hPa 0,0 l/m 0,0 km/h (0 Bft) 0 min 0,0 km/h (0 Bft)
25.08.2009 06:32 23,8 C 17,9 C 0,0 UV-I 0,0 C 60 % 87 % 0 % 1009,4 hPa 0,0 l/m 0,0 km/h (0 Bft) 0 min 0,0 km/h (0 Bft)
25.08.2009 06:34 23,8 C 17,9 C 0,0 UV-I 0,0 C 60 % 87 % 0 % 1009,4 hPa 0,0 l/m 0,0 km/h (0 Bft) 0 min 0,0 km/h (0 Bft)
25.08.2009 06:36 23,8 C 17,9 C 0,0 UV-I 0,0 C 60 % 87 % 0 % 1009,1 hPa 0,0 l/m 0,0 km/h (0 Bft) 0 min 0,0 km/h (0 Bft)
25.08.2009 06:38 23,8 C 17,8 C 0,0 UV-I 0,0 C 60 % 87 % 0 % 1009,1 hPa 0,0 l/m 0,0 km/h (0 Bft) 0 min 0,0 km/h (0 Bft)
25.08.2009 06:40 23,8 C 17,8 C 0,0 UV-I 0,0 C 60 % 87 % 0 % 1009,1 hPa 0,0 l/m 0,0 km/h (0 Bft) 0 min 0,0 km/h (0 Bft)
25.08.2009 06:44 23,7 C 17,9 C 0,0 UV-I 0,0 C 60 % 87 % 0 % 1009,1 hPa 0,0 l/m 0,0 km/h (0 Bft) 0 min 0,0 km/h (0 Bft)
25.08.2009 06:46 23,7 C 17,9 C 0,0 UV-I 0,0 C 60 % 87 % 0 % 1009,1 hPa 0,0 l/m 0,0 km/h (0 Bft) 0 min 0,0 km/h (0 Bft)
25.08.2009 06:48 23,7 C 17,7 C 0,0 UV-I 0,0 C 60 % 87 % 0 % 1009,1 hPa 0,0 l/m 0,0 km/h (0 Bft) 0 min 0,0 km/h (0 Bft)
25.08.2009 06:50 23,7 C 17,7 C 0,0 UV-I 0,0 C 60 % 87 % 0 % 1009,1 hPa 0,0 l/m 0,0 km/h (0 Bft) 0 min 0,0 km/h (0 Bft)
25.08.2009 06:52 23,7 C 17,7 C 0,0 UV-I 0,0 C 60 % 87 % 0 % 1009,1 hPa 0,0 l/m 0,0 km/h (0 Bft) 0 min 0,0 km/h (0 Bft)
25.08.2009 06:54 23,7 C 17,7 C 0,0 UV-I 0,0 C 60 % 87 % 0 % 1009,1 hPa 0,0 l/m 0,0 km/h (0 Bft) 0 min 0,0 km/h (0 Bft)
25.08.2009 06:56 23,7 C 17,7 C 0,0 UV-I 0,0 C 61 % 87 % 0 % 1009,3 hPa 0,0 l/m 0,0 km/h (0 Bft) 0 min 0,0 km/h (0 Bft)
25.08.2009 06:58 23,7 C 17,7 C 0,0 UV-I 0,0 C 61 % 87 % 0 % 1009,3 hPa 0,0 l/m 0,0 km/h (0 Bft) 0 min 0,0 km/h (0 Bft)
25.08.2009 07:04 23,6 C 17,6 C 0,0 UV-I 0,0 C 60 % 87 % 0 % 1009,3 hPa 0,0 l/m 0,0 km/h (0 Bft) 0 min 0,0 km/h (0 Bft)
25.08.2009 07:06 23,7 C 17,6 C 0,0 UV-I 0,0 C 60 % 87 % 0 % 1009,3 hPa 0,0 l/m 0,0 km/h (0 Bft) 0 min 0,0 km/h (0 Bft)
25.08.2009 07:08 23,7 C 17,6 C 0,0 UV-I 0,0 C 61 % 87 % 0 % 1009,3 hPa 0,0 l/m 0,0 km/h (0 Bft) 0 min 2,4 km/h (1 Bft)
25.08.2009 07:10 23,6 C 17,7 C 0,0 UV-I 0,0 C 61 % 88 % 0 % 1009,3 hPa 0,0 l/m 0,0 km/h (0 Bft) 0 min 2,4 km/h (1 Bft)
25.08.2009 07:12 23,6 C 17,7 C 0,0 UV-I 0,0 C 61 % 88 % 0 % 1009,3 hPa 0,0 l/m 0,0 km/h (0 Bft) 0 min 0,0 km/h (0 Bft)
25.08.2009 07:14 23,6 C 17,7 C 0,0 UV-I 0,0 C 61 % 88 % 0 % 1009,3 hPa 0,0 l/m 0,0 km/h (0 Bft) 0 min 2,6 km/h (1 Bft)
25.08.2009 07:16 23,6 C 17,6 C 0,0 UV-I 0,0 C 61 % 88 % 0 % 1009,8 hPa 0,0 l/m 0,2 km/h (0 Bft) 0 min 2,6 km/h (1 Bft)
25.08.2009 07:18 23,6 C 17,7 C 0,0 UV-I 0,0 C 61 % 88 % 0 % 1009,8 hPa 0,0 l/m 0,2 km/h (0 Bft) 0 min 0,0 km/h (0 Bft)
25.08.2009 07:20 23,6 C 17,7 C 0,0 UV-I 0,0 C 61 % 88 % 0 % 1009,8 hPa 0,0 l/m 0,2 km/h (0 Bft) 0 min 0,0 km/h (0 Bft)
25.08.2009 07:22 23,6 C 17,7 C 0,0 UV-I 0,0 C 61 % 88 % 0 % 1009,8 hPa 0,0 l/m 0,5 km/h (0 Bft) 0 min 3,1 km/h (1 Bft)
25.08.2009 07:24 23,6 C 17,6 C 0,0 UV-I 0,0 C 61 % 88 % 0 % 1009,8 hPa 0,0 l/m 0,7 km/h (0 Bft) 0 min 3,1 km/h (1 Bft)
25.08.2009 07:26 23,6 C 17,6 C 0,0 UV-I 0,0 C 61 % 88 % 0 % 1009,8 hPa 0,0 l/m 0,7 km/h (0 Bft) 0 min 2,4 km/h (1 Bft)
25.08.2009 07:28 23,6 C 17,7 C 0,0 UV-I 0,0 C 62 % 89 % 0 % 1009,8 hPa 0,0 l/m 1,0 km/h (0 Bft) 0 min 0,0 km/h (0 Bft)
25.08.2009 07:30 23,6 C 17,6 C 0,0 UV-I 0,0 C 62 % 89 % 0 % 1009,8 hPa 0,0 l/m 1,0 km/h (0 Bft) 0 min 0,0 km/h (0 Bft)
25.08.2009 07:32 23,6 C 17,7 C 0,0 UV-I 0,0 C 62 % 89 % 0 % 1009,8 hPa 0,0 l/m 1,2 km/h (1 Bft) 0 min 5,1 km/h (1 Bft)
25.08.2009 07:34 23,6 C 17,7 C 0,0 UV-I 0,0 C 62 % 89 % 0 % 1009,8 hPa 0,0 l/m 1,4 km/h (1 Bft) 0 min 5,1 km/h (1 Bft)
25.08.2009 07:36 23,6 C 17,7 C 0,0 UV-I 0,0 C 62 % 89 % 0 % 1010,4 hPa 0,0 l/m 2,4 km/h (1 Bft) 0 min 7,2 km/h (2 Bft)
25.08.2009 07:38 23,6 C 17,7 C 0,0 UV-I 0,0 C 62 % 89 % 0 % 1010,4 hPa 0,0 l/m 2,2 km/h (1 Bft) 0 min 7,2 km/h (2 Bft)
25.08.2009 07:40 23,6 C 17,7 C 0,0 UV-I 0,0 C 62 % 89 % 0 % 1010,4 hPa 0,0 l/m 2,2 km/h (1 Bft) 0 min 3,1 km/h (1 Bft)
25.08.2009 07:42 23,6 C 17,6 C 0,0 UV-I 0,0 C 62 % 89 % 0 % 1010,4 hPa 0,0 l/m 2,2 km/h (1 Bft) 0 min 0,0 km/h (0 Bft)
25.08.2009 07:44 23,6 C 17,6 C 0,0 UV-I 0,0 C 62 % 89 % 0 % 1010,4 hPa 0,0 l/m 1,4 km/h (1 Bft) 0 min 0,0 km/h (0 Bft)
25.08.2009 07:46 23,6 C 17,6 C 0,0 UV-I 0,0 C 61 % 89 % 0 % 1010,4 hPa 0,0 l/m 0,7 km/h (0 Bft) 0 min 0,0 km/h (0 Bft)
25.08.2009 07:48 23,6 C 17,7 C 0,0 UV-I 0,0 C 61 % 89 % 0 % 1010,4 hPa 0,0 l/m 0,2 km/h (0 Bft) 0 min 0,0 km/h (0 Bft)
25.08.2009 07:50 23,6 C 17,6 C 0,0 UV-I 0,0 C 61 % 89 % 0 % 1010,4 hPa 0,0 l/m 0,0 km/h (0 Bft) 0 min 0,0 km/h (0 Bft)
25.08.2009 07:52 23,6 C 17,6 C 0,0 UV-I 0,0 C 62 % 90 % 0 % 1010,4 hPa 0,0 l/m 0,2 km/h (0 Bft) 0 min 0,0 km/h (0 Bft)
25.08.2009 07:54 23,6 C 17,6 C 0,0 UV-I 0,0 C 62 % 90 % 0 % 1010,4 hPa 0,0 l/m 0,2 km/h (0 Bft) 0 min 0,0 km/h (0 Bft)
25.08.2009 07:56 23,6 C 17,7 C 0,0 UV-I 0,0 C 62 % 90 % 0 % 1010,4 hPa 0,0 l/m 0,2 km/h (0 Bft) 0 min 0,0 km/h (0 Bft)
25.08.2009 07:58 23,5 C 17,7 C 0,1 UV-I 0,0 C 62 % 89 % 0 % 1010,4 hPa 0,0 l/m 0,2 km/h (0 Bft) 0 min 0,0 km/h (0 Bft)
25.08.2009 08:02 23,5 C 17,7 C 0,0 UV-I 0,0 C 62 % 90 % 0 % 1010,4 hPa 0,0 l/m 0,7 km/h (0 Bft) 0 min 5,1 km/h (1 Bft)
25.08.2009 08:04 23,5 C 17,7 C 0,0 UV-I 0,0 C 62 % 90 % 0 % 1010,4 hPa 0,0 l/m 1,0 km/h (0 Bft) 0 min 5,1 km/h (1 Bft)
25.08.2009 08:06 23,6 C 17,7 C 0,0 UV-I 0,0 C 62 % 90 % 0 % 1010,4 hPa 0,0 l/m 1,0 km/h (0 Bft) 0 min 0,0 km/h (0 Bft)
25.08.2009 08:08 23,5 C 17,7 C 0,1 UV-I 0,0 C 62 % 90 % 0 % 1010,4 hPa 0,0 l/m 1,0 km/h (0 Bft) 0 min 0,0 km/h (0 Bft)
25.08.2009 08:10 23,5 C 17,7 C 0,1 UV-I 0,0 C 62 % 90 % 0 % 1010,4 hPa 0,0 l/m 1,0 km/h (0 Bft) 0 min 0,0 km/h (0 Bft)
25.08.2009 08:12 23,5 C 17,7 C 0,1 UV-I 0,0 C 62 % 90 % 0 % 1010,4 hPa 0,0 l/m 0,7 km/h (0 Bft) 0 min 0,0 km/h (0 Bft)
25.08.2009 08:14 23,5 C 17,7 C 0,1 UV-I 0,0 C 62 % 90 % 0 % 1010,4 hPa 0,0 l/m 0,0 km/h (0 Bft) 0 min 0,0 km/h (0 Bft)
25.08.2009 08:16 23,6 C 17,7 C 0,1 UV-I 0,0 C 62 % 90 % 0 % 1010,2 hPa 0,0 l/m 0,0 km/h (0 Bft) 0 min 0,0 km/h (0 Bft)
25.08.2009 08:18 23,5 C 17,8 C 0,2 UV-I 0,0 C 62 % 90 % 0 % 1010,2 hPa 0,0 l/m 0,0 km/h (0 Bft) 0 min 0,0 km/h (0 Bft)
25.08.2009 08:20 23,6 C 17,7 C 0,2 UV-I 0,0 C 62 % 90 % 0 % 1010,2 hPa 0,0 l/m 0,0 km/h (0 Bft) 0 min 0,0 km/h (0 Bft)
25.08.2009 08:22 23,6 C 17,7 C 0,1 UV-I 0,0 C 62 % 90 % 0 % 1010,2 hPa 0,0 l/m 0,0 km/h (0 Bft) 0 min 0,0 km/h (0 Bft)
25.08.2009 08:24 23,6 C 17,9 C 0,1 UV-I 0,0 C 62 % 90 % 0 % 1010,2 hPa 0,0 l/m 0,0 km/h (0 Bft) 0 min 0,0 km/h (0 Bft)
25.08.2009 08:26 23,5 C 17,9 C 0,1 UV-I 0,0 C 62 % 90 % 0 % 1010,2 hPa 0,0 l/m 0,0 km/h (0 Bft) 0 min 0,0 km/h (0 Bft)
25.08.2009 08:28 23,6 C 17,9 C 0,2 UV-I 0,0 C 62 % 90 % 0 % 1010,2 hPa 0,0 l/m 0,0 km/h (0 Bft) 0 min 0,0 km/h (0 Bft)
25.08.2009 08:30 23,6 C 17,9 C 0,2 UV-I 0,0 C 62 % 90 % 0 % 1010,2 hPa 0,0 l/m 0,0 km/h (0 Bft) 0 min 0,0 km/h (0 Bft)
25.08.2009 08:32 23,6 C 17,9 C 0,1 UV-I 0,0 C 62 % 90 % 0 % 1010,2 hPa 0,0 l/m 0,0 km/h (0 Bft) 0 min 0,0 km/h (0 Bft)
25.08.2009 08:34 23,5 C 17,9 C 0,1 UV-I 0,0 C 62 % 90 % 0 % 1010,2 hPa 0,0 l/m 0,0 km/h (0 Bft) 0 min 0,0 km/h (0 Bft)
25.08.2009 08:36 23,6 C 17,8 C 0,1 UV-I 0,0 C 62 % 90 % 0 % 1010,2 hPa 0,0 l/m 0,0 km/h (0 Bft) 0 min 0,0 km/h (0 Bft)
25.08.2009 08:38 23,6 C 17,8 C 0,1 UV-I 0,0 C 62 % 90 % 0 % 1010,2 hPa 0,0 l/m 0,0 km/h (0 Bft) 0 min 0,0 km/h (0 Bft)
25.08.2009 08:40 23,5 C 17,9 C 0,1 UV-I 0,0 C 62 % 90 % 0 % 1010,2 hPa 0,0 l/m 0,0 km/h (0 Bft) 0 min 0,0 km/h (0 Bft)
25.08.2009 08:42 23,6 C 17,9 C 0,1 UV-I 0,0 C 62 % 90 % 0 % 1010,2 hPa 0,0 l/m 0,5 km/h (0 Bft) 0 min 3,8 km/h (1 Bft)
25.08.2009 08:44 23,6 C 17,9 C 0,1 UV-I 0,0 C 62 % 90 % 0 % 1010,2 hPa 0,0 l/m 1,0 km/h (0 Bft) 0 min 3,8 km/h (1 Bft)
25.08.2009 08:46 23,6 C 17,9 C 0,1 UV-I 0,0 C 62 % 90 % 0 % 1010,2 hPa 0,0 l/m 1,2 km/h (1 Bft) 0 min 2,4 km/h (1 Bft)
25.08.2009 08:48 23,5 C 17,9 C 0,0 UV-I 0,0 C 62 % 90 % 0 % 1010,2 hPa 0,1 l/m 1,2 km/h (1 Bft) 0 min 0,0 km/h (0 Bft)
25.08.2009 08:50 23,5 C 17,9 C 0,0 UV-I 0,0 C 62 % 90 % 0 % 1010,2 hPa 0,0 l/m 1,2 km/h (1 Bft) 0 min 0,0 km/h (0 Bft)
25.08.2009 08:52 23,5 C 17,9 C 0,0 UV-I 0,0 C 62 % 90 % 0 % 1010,2 hPa 0,0 l/m 1,0 km/h (0 Bft) 0 min 0,0 km/h (0 Bft)
25.08.2009 08:54 23,5 C 17,9 C 0,0 UV-I 0,0 C 62 % 90 % 0 % 1010,2 hPa 0,0 l/m 0,5 km/h (0 Bft) 0 min 2,4 km/h (1 Bft)
25.08.2009 08:56 23,6 C 18,0 C 0,0 UV-I 0,0 C 62 % 90 % 0 % 1010,6 hPa 0,0 l/m 0,2 km/h (0 Bft) 0 min 2,4 km/h (1 Bft)
25.08.2009 08:58 23,6 C 17,9 C 0,0 UV-I 0,0 C 62 % 90 % 0 % 1010,6 hPa 0,0 l/m 0,2 km/h (0 Bft) 0 min 0,0 km/h (0 Bft)
25.08.2009 09:02 23,5 C 18,0 C 0,0 UV-I 0,0 C 63 % 90 % 0 % 1010,6 hPa 0,0 l/m 0,2 km/h (0 Bft) 0 min 3,4 km/h (1 Bft)
25.08.2009 09:04 23,5 C 18,1 C 0,0 UV-I 0,0 C 62 % 90 % 0 % 1010,6 hPa 0,0 l/m 0,2 km/h (0 Bft) 0 min 3,4 km/h (1 Bft)
25.08.2009 09:06 23,5 C 18,0 C 0,0 UV-I 0,0 C 62 % 90 % 0 % 1010,6 hPa 0,0 l/m 0,2 km/h (0 Bft) 0 min 0,0 km/h (0 Bft)
25.08.2009 09:08 23,5 C 18,1 C 0,2 UV-I 0,0 C 62 % 90 % 0 % 1010,6 hPa 0,0 l/m 0,2 km/h (0 Bft) 0 min 0,0 km/h (0 Bft)
25.08.2009 09:12 23,5 C 18,0 C 0,4 UV-I 0,0 C 62 % 90 % 0 % 1010,6 hPa 0,0 l/m 0,2 km/h (0 Bft) 0 min 0,0 km/h (0 Bft)
25.08.2009 09:14 23,5 C 18,0 C 0,4 UV-I 0,0 C 62 % 90 % 0 % 1010,6 hPa 0,0 l/m 0,0 km/h (0 Bft) 0 min 0,0 km/h (0 Bft)
25.08.2009 09:16 23,5 C 18,1 C 0,4 UV-I 0,0 C 62 % 90 % 0 % 1010,3 hPa 0,0 l/m 0,0 km/h (0 Bft) 0 min 0,0 km/h (0 Bft)
25.08.2009 09:18 23,6 C 18,1 C 0,4 UV-I 0,0 C 62 % 90 % 0 % 1010,3 hPa 0,0 l/m 0,0 km/h (0 Bft) 0 min 0,0 km/h (0 Bft)
25.08.2009 09:20 23,5 C 18,1 C 0,4 UV-I 0,0 C 62 % 90 % 0 % 1010,3 hPa 0,0 l/m 0,0 km/h (0 Bft) 0 min 0,0 km/h (0 Bft)
25.08.2009 09:22 23,6 C 18,1 C 0,3 UV-I 0,0 C 62 % 90 % 0 % 1010,3 hPa 0,0 l/m 0,0 km/h (0 Bft) 0 min 0,0 km/h (0 Bft)
25.08.2009 09:24 23,5 C 18,1 C 0,3 UV-I 0,0 C 62 % 90 % 0 % 1010,3 hPa 0,0 l/m 0,0 km/h (0 Bft) 0 min 0,0 km/h (0 Bft)
25.08.2009 09:26 23,6 C 18,2 C 0,3 UV-I 0,0 C 62 % 90 % 0 % 1010,3 hPa 0,0 l/m 0,0 km/h (0 Bft) 0 min 0,0 km/h (0 Bft)
25.08.2009 09:28 23,6 C 18,2 C 0,7 UV-I 0,0 C 62 % 90 % 0 % 1010,3 hPa 0,0 l/m 0,0 km/h (0 Bft) 0 min 2,6 km/h (1 Bft)
25.08.2009 09:30 23,6 C 18,3 C 0,7 UV-I 0,0 C 63 % 90 % 0 % 1010,3 hPa 0,0 l/m 0,0 km/h (0 Bft) 0 min 2,6 km/h (1 Bft)
25.08.2009 09:34 23,6 C 18,3 C 0,7 UV-I 0,0 C 63 % 90 % 0 % 1010,3 hPa 0,0 l/m 0,0 km/h (0 Bft) 0 min 0,0 km/h (0 Bft)
25.08.2009 09:36 23,6 C 18,3 C 0,7 UV-I 0,0 C 62 % 90 % 0 % 1010,2 hPa 0,0 l/m 0,0 km/h (0 Bft) 0 min 0,0 km/h (0 Bft)
25.08.2009 09:38 23,6 C 18,3 C 0,7 UV-I 0,0 C 62 % 90 % 0 % 1010,2 hPa 0,0 l/m 0,0 km/h (0 Bft) 0 min 0,0 km/h (0 Bft)
25.08.2009 09:40 23,6 C 18,3 C 0,7 UV-I 0,0 C 62 % 90 % 0 % 1010,2 hPa 0,0 l/m 0,2 km/h (0 Bft) 0 min 0,0 km/h (0 Bft)
25.08.2009 09:42 23,6 C 18,4 C 0,5 UV-I 0,0 C 63 % 90 % 0 % 1010,2 hPa 0,0 l/m 0,5 km/h (0 Bft) 0 min 3,6 km/h (1 Bft)
25.08.2009 09:44 23,6 C 18,3 C 0,5 UV-I 0,0 C 63 % 90 % 0 % 1010,2 hPa 0,0 l/m 0,5 km/h (0 Bft) 0 min 3,6 km/h (1 Bft)
25.08.2009 09:46 23,6 C 18,5 C 0,5 UV-I 0,0 C 63 % 90 % 0 % 1010,2 hPa 0,0 l/m 0,7 km/h (0 Bft) 0 min 0,0 km/h (0 Bft)
25.08.2009 09:48 23,6 C 18,5 C 0,5 UV-I 0,0 C 63 % 90 % 0 % 1010,2 hPa 0,0 l/m 1,0 km/h (0 Bft) 0 min 2,6 km/h (1 Bft)
25.08.2009 09:50 23,6 C 18,4 C 0,5 UV-I 0,0 C 63 % 90 % 0 % 1010,2 hPa 0,0 l/m 0,7 km/h (0 Bft) 0 min 2,6 km/h (1 Bft)
25.08.2009 09:52 23,6 C 18,5 C 0,6 UV-I 0,0 C 63 % 90 % 0 % 1010,2 hPa 0,0 l/m 0,7 km/h (0 Bft) 0 min 0,0 km/h (0 Bft)
25.08.2009 09:54 23,6 C 18,5 C 0,6 UV-I 0,0 C 63 % 90 % 0 % 1010,2 hPa 0,0 l/m 1,0 km/h (0 Bft) 0 min 4,8 km/h (1 Bft)
25.08.2009 09:56 23,6 C 18,5 C 0,6 UV-I 0,0 C 63 % 90 % 0 % 1010,8 hPa 0,0 l/m 0,7 km/h (0 Bft) 0 min 0,0 km/h (0 Bft)
25.08.2009 09:58 23,6 C 18,5 C 0,5 UV-I 0,0 C 63 % 90 % 0 % 1010,8 hPa 0,0 l/m 0,7 km/h (0 Bft) 0 min 0,0 km/h (0 Bft)
25.08.2009 10:00 23,6 C 18,5 C 0,5 UV-I 0,0 C 63 % 90 % 0 % 1010,8 hPa 0,0 l/m 0,7 km/h (0 Bft) 0 min 0,0 km/h (0 Bft)
25.08.2009 10:02 23,6 C 18,5 C 0,5 UV-I 0,0 C 63 % 90 % 0 % 1010,8 hPa 0,0 l/m 0,7 km/h (0 Bft) 0 min 0,0 km/h (0 Bft)
25.08.2009 10:04 23,6 C 18,5 C 0,5 UV-I 0,0 C 63 % 90 % 0 % 1010,8 hPa 0,0 l/m 0,7 km/h (0 Bft) 0 min 0,0 km/h (0 Bft)
25.08.2009 10:08 23,6 C 18,7 C 0,2 UV-I 0,0 C 63 % 90 % 0 % 1010,8 hPa 0,0 l/m 0,2 km/h (0 Bft) 0 min 0,0 km/h (0 Bft)
25.08.2009 10:10 23,6 C 18,6 C 0,2 UV-I 0,0 C 63 % 90 % 0 % 1010,8 hPa 0,0 l/m 0,2 km/h (0 Bft) 0 min 0,0 km/h (0 Bft)
25.08.2009 10:12 23,6 C 18,7 C 0,2 UV-I 0,0 C 63 % 90 % 0 % 1010,8 hPa 0,0 l/m 0,2 km/h (0 Bft) 0 min 0,0 km/h (0 Bft)
25.08.2009 10:14 23,6 C 18,6 C 0,2 UV-I 0,0 C 63 % 90 % 0 % 1010,8 hPa 0,0 l/m 0,2 km/h (0 Bft) 0 min 0,0 km/h (0 Bft)
25.08.2009 10:16 23,6 C 18,7 C 0,2 UV-I 0,0 C 63 % 90 % 0 % 1010,7 hPa 0,0 l/m 0,2 km/h (0 Bft) 0 min 3,1 km/h (1 Bft)
25.08.2009 10:18 23,6 C 18,6 C 0,2 UV-I 0,0 C 63 % 90 % 0 % 1010,7 hPa 0,0 l/m 1,0 km/h (0 Bft) 0 min 6,3 km/h (2 Bft)
25.08.2009 10:20 23,6 C 18,7 C 0,2 UV-I 0,0 C 63 % 90 % 0 % 1010,7 hPa 0,1 l/m 1,4 km/h (1 Bft) 0 min 6,3 km/h (2 Bft)
25.08.2009 10:22 23,6 C 18,7 C 0,1 UV-I 0,0 C 63 % 90 % 0 % 1010,7 hPa 0,1 l/m 1,4 km/h (1 Bft) 0 min 3,8 km/h (1 Bft)
25.08.2009 10:24 23,6 C 18,6 C 0,1 UV-I 0,0 C 63 % 90 % 0 % 1010,7 hPa 0,0 l/m 1,4 km/h (1 Bft) 0 min 0,0 km/h (0 Bft)
25.08.2009 10:26 23,6 C 18,6 C 0,1 UV-I 0,0 C 63 % 90 % 0 % 1010,7 hPa 0,0 l/m 1,4 km/h (1 Bft) 0 min 2,6 km/h (1 Bft)
25.08.2009 10:30 23,6 C 18,7 C 0,2 UV-I 0,0 C 63 % 90 % 0 % 1010,7 hPa 0,0 l/m 1,0 km/h (0 Bft) 0 min 3,4 km/h (1 Bft)
25.08.2009 10:32 23,6 C 18,6 C 0,2 UV-I 0,0 C 63 % 90 % 0 % 1010,7 hPa 0,0 l/m 1,2 km/h (1 Bft) 0 min 5,5 km/h (1 Bft)
25.08.2009 10:34 23,6 C 18,6 C 0,2 UV-I 0,0 C 64 % 90 % 0 % 1010,7 hPa 0,1 l/m 1,7 km/h (1 Bft) 0 min 5,5 km/h (1 Bft)
25.08.2009 10:36 23,6 C 18,6 C 0,2 UV-I 0,0 C 64 % 90 % 0 % 1011,6 hPa 0,0 l/m 1,9 km/h (1 Bft) 0 min 5,3 km/h (1 Bft)
25.08.2009 10:38 23,6 C 18,7 C 0,3 UV-I 0,0 C 64 % 90 % 0 % 1011,6 hPa 0,1 l/m 3,1 km/h (1 Bft) 0 min 13,7 km/h (3 Bft)
25.08.2009 10:40 23,6 C 18,7 C 0,3 UV-I 0,0 C 64 % 90 % 0 % 1011,6 hPa 0,0 l/m 3,6 km/h (1 Bft) 0 min 13,7 km/h (3 Bft)
25.08.2009 10:42 23,6 C 18,7 C 0,4 UV-I 0,0 C 64 % 90 % 0 % 1011,6 hPa 0,0 l/m 3,4 km/h (1 Bft) 0 min 0,0 km/h (0 Bft)
25.08.2009 10:44 23,6 C 18,6 C 0,4 UV-I 0,0 C 64 % 90 % 0 % 1011,6 hPa 0,1 l/m 3,4 km/h (1 Bft) 0 min 3,1 km/h (1 Bft)
25.08.2009 10:46 23,6 C 18,7 C 0,4 UV-I 0,0 C 64 % 90 % 0 % 1011,6 hPa 0,0 l/m 3,6 km/h (1 Bft) 0 min 6,5 km/h (2 Bft)
25.08.2009 10:48 23,6 C 18,7 C 0,5 UV-I 0,0 C 64 % 90 % 0 % 1011,6 hPa 0,0 l/m 2,9 km/h (1 Bft) 0 min 6,5 km/h (2 Bft)
25.08.2009 10:50 23,6 C 18,7 C 0,5 UV-I 0,0 C 64 % 90 % 0 % 1011,6 hPa 0,1 l/m 1,7 km/h (1 Bft) 0 min 3,8 km/h (1 Bft)
25.08.2009 10:54 23,6 C 18,7 C 0,5 UV-I 0,0 C 64 % 90 % 0 % 1011,6 hPa 0,0 l/m 1,7 km/h (1 Bft) 0 min 6,5 km/h (2 Bft)
25.08.2009 10:56 23,6 C 18,7 C 0,5 UV-I 0,0 C 64 % 90 % 0 % 1011,6 hPa 0,0 l/m 1,7 km/h (1 Bft) 0 min 6,5 km/h (2 Bft)
25.08.2009 10:58 23,6 C 18,7 C 0,3 UV-I 0,0 C 64 % 90 % 0 % 1011,6 hPa 0,0 l/m 1,7 km/h (1 Bft) 0 min 3,4 km/h (1 Bft)
25.08.2009 11:00 23,5 C 18,7 C 0,3 UV-I 0,0 C 64 % 90 % 0 % 1011,6 hPa 0,0 l/m 1,9 km/h (1 Bft) 0 min 5,8 km/h (2 Bft)
25.08.2009 11:02 23,5 C 18,6 C 0,3 UV-I 0,0 C 64 % 90 % 0 % 1011,6 hPa 0,0 l/m 1,9 km/h (1 Bft) 0 min 5,8 km/h (2 Bft)
25.08.2009 11:04 23,5 C 18,7 C 0,3 UV-I 0,0 C 64 % 90 % 0 % 1011,6 hPa 0,0 l/m 1,9 km/h (1 Bft) 0 min 5,5 km/h (1 Bft)
25.08.2009 11:06 23,5 C 18,7 C 0,3 UV-I 0,0 C 64 % 90 % 0 % 1011,6 hPa 0,2 l/m 2,2 km/h (1 Bft) 0 min 5,5 km/h (1 Bft)
25.08.2009 11:08 23,5 C 18,7 C 0,4 UV-I 0,0 C 64 % 90 % 0 % 1011,6 hPa 0,2 l/m 2,4 km/h (1 Bft) 0 min 4,1 km/h (1 Bft)
25.08.2009 11:10 23,5 C 18,6 C 0,4 UV-I 0,0 C 64 % 90 % 0 % 1011,6 hPa 0,0 l/m 2,4 km/h (1 Bft) 0 min 2,9 km/h (1 Bft)
25.08.2009 11:12 23,5 C 18,6 C 0,2 UV-I 0,0 C 64 % 90 % 0 % 1011,6 hPa 0,1 l/m 1,9 km/h (1 Bft) 0 min 2,9 km/h (1 Bft)
25.08.2009 11:14 23,5 C 18,7 C 0,2 UV-I 0,0 C 64 % 90 % 0 % 1011,6 hPa 0,0 l/m 1,9 km/h (1 Bft) 0 min 0,0 km/h (0 Bft)
25.08.2009 11:18 23,5 C 18,7 C 0,5 UV-I 0,0 C 64 % 90 % 0 % 1011,1 hPa 0,0 l/m 0,7 km/h (0 Bft) 0 min 0,0 km/h (0 Bft)
25.08.2009 11:20 23,5 C 18,7 C 0,5 UV-I 0,0 C 64 % 90 % 0 % 1011,1 hPa 0,0 l/m 1,0 km/h (0 Bft) 0 min 4,8 km/h (1 Bft)
25.08.2009 11:22 23,5 C 18,7 C 0,6 UV-I 0,0 C 64 % 90 % 0 % 1011,1 hPa 0,0 l/m 1,4 km/h (1 Bft) 0 min 6,0 km/h (2 Bft)
25.08.2009 11:24 23,5 C 18,6 C 0,6 UV-I 0,0 C 65 % 90 % 0 % 1011,1 hPa 0,0 l/m 2,4 km/h (1 Bft) 0 min 6,3 km/h (2 Bft)
25.08.2009 11:30 23,6 C 18,7 C 0,9 UV-I 0,0 C 65 % 91 % 0 % 1011,1 hPa 0,1 l/m 5,1 km/h (1 Bft) 0 min 10,3 km/h (2 Bft)
25.08.2009 11:34 23,5 C 18,6 C 0,9 UV-I 0,0 C 65 % 91 % 0 % 1011,1 hPa 0,0 l/m 5,1 km/h (1 Bft) 0 min 10,3 km/h (2 Bft)
25.08.2009 11:38 23,5 C 18,7 C 1,1 UV-I 0,0 C 65 % 90 % 0 % 1011,0 hPa 0,0 l/m 5,1 km/h (1 Bft) 0 min 9,4 km/h (2 Bft)
25.08.2009 11:40 23,6 C 18,7 C 1,1 UV-I 0,0 C 65 % 90 % 0 % 1011,0 hPa 0,0 l/m 4,8 km/h (1 Bft) 0 min 5,3 km/h (1 Bft)
25.08.2009 11:42 23,6 C 18,7 C 1,5 UV-I 0,0 C 65 % 90 % 0 % 1011,0 hPa 0,0 l/m 5,1 km/h (1 Bft) 0 min 7,5 km/h (2 Bft)
25.08.2009 11:44 23,6 C 18,8 C 1,5 UV-I 0,0 C 65 % 91 % 0 % 1011,0 hPa 0,0 l/m 4,8 km/h (1 Bft) 0 min 7,5 km/h (2 Bft)
25.08.2009 11:46 23,6 C 18,9 C 1,5 UV-I 0,0 C 65 % 91 % 0 % 1011,0 hPa 0,0 l/m 3,8 km/h (1 Bft) 0 min 4,1 km/h (1 Bft)
25.08.2009 11:48 23,6 C 18,8 C 2,3 UV-I 0,0 C 65 % 91 % 0 % 1011,0 hPa 0,0 l/m 3,1 km/h (1 Bft) 0 min 4,3 km/h (1 Bft)
25.08.2009 11:50 23,6 C 18,9 C 2,3 UV-I 0,2 C 65 % 91 % 6 % 1011,0 hPa 0,0 l/m 3,1 km/h (1 Bft) 0 min 9,4 km/h (2 Bft)
25.08.2009 11:54 23,6 C 19,1 C 4,5 UV-I 0,6 C 65 % 91 % 17 % 1011,0 hPa 0,0 l/m 2,9 km/h (1 Bft) 0 min 9,4 km/h (2 Bft)
25.08.2009 11:56 23,6 C 19,2 C 4,5 UV-I 0,7 C 65 % 91 % 20 % 1011,0 hPa 0,0 l/m 2,6 km/h (1 Bft) 0 min 0,0 km/h (0 Bft)
25.08.2009 11:58 23,6 C 19,2 C 2,4 UV-I 0,8 C 65 % 91 % 23 % 1011,0 hPa 0,0 l/m 2,6 km/h (1 Bft) 0 min 0,0 km/h (0 Bft)
25.08.2009 12:00 23,6 C 19,2 C 2,4 UV-I 0,9 C 65 % 91 % 26 % 1011,0 hPa 0,0 l/m 2,2 km/h (1 Bft) 0 min 0,0 km/h (0 Bft)
25.08.2009 12:02 23,7 C 19,2 C 2,4 UV-I 1,0 C 64 % 90 % 29 % 1011,0 hPa 0,0 l/m 1,4 km/h (1 Bft) 0 min 0,0 km/h (0 Bft)
25.08.2009 12:04 23,7 C 19,2 C 2,4 UV-I 1,0 C 64 % 90 % 29 % 1011,0 hPa 0,0 l/m 1,4 km/h (1 Bft) 0 min 0,0 km/h (0 Bft)
25.08.2009 12:06 23,7 C 19,5 C 2,4 UV-I 1,0 C 64 % 90 % 29 % 1011,0 hPa 0,0 l/m 0,2 km/h (0 Bft) 0 min 0,0 km/h (0 Bft)
25.08.2009 12:08 23,7 C 19,4 C 1,9 UV-I 1,2 C 64 % 90 % 34 % 1011,0 hPa 0,0 l/m 0,2 km/h (0 Bft) 0 min 0,0 km/h (0 Bft)
25.08.2009 12:10 23,7 C 19,4 C 1,9 UV-I 1,2 C 64 % 89 % 34 % 1011,0 hPa 0,0 l/m 0,2 km/h (0 Bft) 0 min 0,0 km/h (0 Bft)
25.08.2009 12:12 23,7 C 19,4 C 1,9 UV-I 1,2 C 64 % 89 % 34 % 1011,0 hPa 0,0 l/m 0,5 km/h (0 Bft) 0 min 0,0 km/h (0 Bft)
25.08.2009 12:14 23,8 C 19,5 C 1,9 UV-I 1,1 C 64 % 89 % 31 % 1011,0 hPa 0,0 l/m 0,5 km/h (0 Bft) 0 min 2,9 km/h (1 Bft)
25.08.2009 12:16 23,8 C 19,6 C 1,9 UV-I 1,0 C 64 % 89 % 29 % 1010,8 hPa 0,0 l/m 0,5 km/h (0 Bft) 0 min 0,0 km/h (0 Bft)
25.08.2009 12:18 23,8 C 19,6 C 1,8 UV-I 1,0 C 64 % 89 % 29 % 1010,8 hPa 0,0 l/m 0,5 km/h (0 Bft) 0 min 0,0 km/h (0 Bft)
25.08.2009 12:20 23,8 C 19,6 C 1,8 UV-I 1,0 C 64 % 89 % 29 % 1010,8 hPa 0,0 l/m 0,5 km/h (0 Bft) 0 min 0,0 km/h (0 Bft)
25.08.2009 12:22 23,8 C 19,7 C 1,7 UV-I 0,9 C 64 % 89 % 26 % 1010,8 hPa 0,0 l/m 1,2 km/h (1 Bft) 0 min 5,3 km/h (1 Bft)
25.08.2009 12:24 23,8 C 19,9 C 1,7 UV-I 0,7 C 64 % 89 % 20 % 1010,8 hPa 0,0 l/m 1,4 km/h (1 Bft) 0 min 5,3 km/h (1 Bft)
25.08.2009 12:26 23,8 C 19,9 C 1,7 UV-I 0,7 C 64 % 89 % 20 % 1010,8 hPa 0,0 l/m 1,7 km/h (1 Bft) 0 min 2,9 km/h (1 Bft)
25.08.2009 12:30 23,8 C 19,9 C 1,8 UV-I 0,6 C 64 % 89 % 17 % 1010,8 hPa 0,0 l/m 2,4 km/h (1 Bft) 0 min 3,6 km/h (1 Bft)
25.08.2009 12:32 23,9 C 20,0 C 1,5 UV-I 0,5 C 64 % 89 % 14 % 1010,8 hPa 0,0 l/m 3,1 km/h (1 Bft) 0 min 10,8 km/h (2 Bft)
25.08.2009 12:34 23,9 C 20,0 C 1,5 UV-I 0,4 C 64 % 89 % 11 % 1010,8 hPa 0,0 l/m 4,1 km/h (1 Bft) 0 min 12,3 km/h (3 Bft)
25.08.2009 12:36 23,9 C 20,0 C 1,5 UV-I 0,3 C 64 % 89 % 9 % 1011,7 hPa 0,0 l/m 4,8 km/h (1 Bft) 0 min 12,3 km/h (3 Bft)
25.08.2009 12:38 23,9 C 20,0 C 0,9 UV-I 0,1 C 64 % 89 % 3 % 1011,7 hPa 0,0 l/m 4,8 km/h (1 Bft) 0 min 8,9 km/h (2 Bft)
25.08.2009 12:40 23,9 C 20,0 C 0,9 UV-I 0,0 C 64 % 89 % 0 % 1011,7 hPa 0,0 l/m 5,3 km/h (1 Bft) 0 min 3,1 km/h (1 Bft)
25.08.2009 12:42 23,9 C 19,9 C 0,8 UV-I 0,0 C 64 % 88 % 0 % 1011,7 hPa 0,0 l/m 5,5 km/h (1 Bft) 0 min 3,8 km/h (1 Bft)
25.08.2009 12:46 23,9 C 19,9 C 0,8 UV-I 0,0 C 64 % 88 % 0 % 1011,7 hPa 0,0 l/m 3,6 km/h (1 Bft) 0 min 6,0 km/h (2 Bft)
25.08.2009 12:48 23,9 C 20,1 C 1,1 UV-I 0,0 C 64 % 87 % 0 % 1011,7 hPa 0,0 l/m 2,9 km/h (1 Bft) 0 min 6,0 km/h (2 Bft)
25.08.2009 12:50 23,9 C 20,0 C 1,1 UV-I 0,0 C 64 % 88 % 0 % 1011,7 hPa 0,0 l/m 2,9 km/h (1 Bft) 0 min 0,0 km/h (0 Bft)
25.08.2009 12:54 23,9 C 20,0 C 1,4 UV-I 0,1 C 64 % 88 % 3 % 1011,7 hPa 0,0 l/m 1,2 km/h (1 Bft) 0 min 2,6 km/h (1 Bft)
25.08.2009 12:56 23,9 C 20,1 C 1,4 UV-I 0,3 C 64 % 87 % 9 % 1011,2 hPa 0,0 l/m 1,0 km/h (0 Bft) 0 min 2,6 km/h (1 Bft)
25.08.2009 12:58 23,9 C 20,1 C 2,8 UV-I 0,7 C 64 % 87 % 20 % 1011,2 hPa 0,0 l/m 0,7 km/h (0 Bft) 0 min 0,0 km/h (0 Bft)
25.08.2009 13:00 24,0 C 20,2 C 2,8 UV-I 1,0 C 64 % 87 % 29 % 1011,2 hPa 0,0 l/m 0,7 km/h (0 Bft) 0 min 2,4 km/h (1 Bft)
25.08.2009 13:04 24,0 C 20,4 C 3,5 UV-I 1,5 C 64 % 87 % 43 % 1011,2 hPa 0,0 l/m 0,7 km/h (0 Bft) 0 min 5,3 km/h (1 Bft)
25.08.2009 13:06 24,0 C 20,4 C 3,5 UV-I 1,7 C 64 % 87 % 49 % 1011,2 hPa 0,0 l/m 1,7 km/h (1 Bft) 0 min 6,0 km/h (2 Bft)
25.08.2009 13:14 24,0 C 20,8 C 3,7 UV-I 2,0 C 63 % 86 % 57 % 1011,2 hPa 0,0 l/m 3,6 km/h (1 Bft) 0 min 9,4 km/h (2 Bft)
25.08.2009 13:16 24,1 C 20,9 C 3,7 UV-I 1,8 C 63 % 86 % 51 % 1011,5 hPa 0,0 l/m 3,6 km/h (1 Bft) 0 min 9,4 km/h (2 Bft)
25.08.2009 13:20 24,1 C 20,9 C 3,0 UV-I 1,7 C 63 % 86 % 49 % 1011,5 hPa 0,0 l/m 2,6 km/h (1 Bft) 0 min 4,1 km/h (1 Bft)
25.08.2009 13:22 24,1 C 21,1 C 3,0 UV-I 1,6 C 63 % 86 % 46 % 1011,5 hPa 0,0 l/m 2,4 km/h (1 Bft) 0 min 4,6 km/h (1 Bft)
25.08.2009 13:24 24,1 C 21,1 C 3,0 UV-I 1,7 C 63 % 85 % 49 % 1011,5 hPa 0,0 l/m 1,9 km/h (1 Bft) 0 min 0,0 km/h (0 Bft)
25.08.2009 13:26 24,2 C 21,1 C 3,0 UV-I 1,7 C 63 % 85 % 49 % 1011,5 hPa 0,0 l/m 1,0 km/h (0 Bft) 0 min 0,0 km/h (0 Bft)
25.08.2009 13:30 24,2 C 21,2 C 3,2 UV-I 1,8 C 63 % 85 % 51 % 1011,5 hPa 0,0 l/m 1,2 km/h (1 Bft) 0 min 7,9 km/h (2 Bft)
25.08.2009 13:32 24,2 C 21,2 C 2,8 UV-I 1,8 C 63 % 85 % 51 % 1011,5 hPa 0,0 l/m 1,4 km/h (1 Bft) 0 min 7,9 km/h (2 Bft)
25.08.2009 13:34 24,2 C 21,3 C 2,8 UV-I 1,6 C 63 % 85 % 46 % 1011,5 hPa 0,0 l/m 1,0 km/h (0 Bft) 0 min 3,1 km/h (1 Bft)
25.08.2009 13:36 24,2 C 21,3 C 2,8 UV-I 1,6 C 63 % 84 % 46 % 1011,4 hPa 0,0 l/m 1,4 km/h (1 Bft) 0 min 3,6 km/h (1 Bft)
25.08.2009 13:42 24,2 C 21,4 C 3,2 UV-I 1,5 C 63 % 83 % 43 % 1011,4 hPa 0,0 l/m 1,4 km/h (1 Bft) 0 min 4,3 km/h (1 Bft)
25.08.2009 13:48 24,3 C 21,6 C 3,8 UV-I 1,7 C 63 % 83 % 49 % 1011,4 hPa 0,0 l/m 1,7 km/h (1 Bft) 0 min 4,3 km/h (1 Bft)
25.08.2009 13:52 24,3 C 21,7 C 3,3 UV-I 1,8 C 63 % 83 % 51 % 1011,4 hPa 0,0 l/m 1,7 km/h (1 Bft) 0 min 0,0 km/h (0 Bft)
25.08.2009 13:54 24,2 C 21,7 C 3,3 UV-I 1,9 C 63 % 83 % 54 % 1011,4 hPa 0,0 l/m 1,4 km/h (1 Bft) 0 min 0,0 km/h (0 Bft)
25.08.2009 13:56 24,4 C 21,8 C 3,3 UV-I 1,9 C 63 % 83 % 54 % 1011,8 hPa 0,0 l/m 1,7 km/h (1 Bft) 0 min 5,3 km/h (1 Bft)
25.08.2009 13:58 24,4 C 21,8 C 3,0 UV-I 1,9 C 63 % 82 % 54 % 1011,8 hPa 0,0 l/m 2,9 km/h (1 Bft) 0 min 10,3 km/h (2 Bft)
25.08.2009 14:00 24,4 C 21,9 C 3,0 UV-I 1,6 C 63 % 81 % 46 % 1011,8 hPa 0,0 l/m 3,4 km/h (1 Bft) 0 min 9,1 km/h (2 Bft)
25.08.2009 14:02 24,4 C 21,9 C 2,2 UV-I 1,4 C 63 % 81 % 40 % 1011,8 hPa 0,0 l/m 4,1 km/h (1 Bft) 0 min 9,1 km/h (2 Bft)
25.08.2009 14:04 24,4 C 22,0 C 2,2 UV-I 1,1 C 62 % 81 % 31 % 1011,8 hPa 0,0 l/m 4,1 km/h (1 Bft) 0 min 9,6 km/h (2 Bft)
25.08.2009 14:06 24,4 C 21,9 C 2,2 UV-I 1,1 C 63 % 81 % 31 % 1011,8 hPa 0,0 l/m 5,1 km/h (1 Bft) 0 min 9,6 km/h (2 Bft)
25.08.2009 14:08 24,4 C 22,1 C 2,5 UV-I 0,9 C 62 % 80 % 26 % 1011,8 hPa 0,0 l/m 4,6 km/h (1 Bft) 0 min 3,4 km/h (1 Bft)
25.08.2009 14:10 24,4 C 22,0 C 2,5 UV-I 1,0 C 63 % 81 % 29 % 1011,8 hPa 0,0 l/m 4,3 km/h (1 Bft) 0 min 14,0 km/h (3 Bft)
25.08.2009 14:12 24,4 C 22,1 C 4,2 UV-I 1,0 C 63 % 80 % 29 % 1011,8 hPa 0,0 l/m 4,3 km/h (1 Bft) 0 min 14,0 km/h (3 Bft)
25.08.2009 14:14 24,4 C 22,2 C 4,2 UV-I 1,2 C 63 % 81 % 34 % 1011,8 hPa 0,0 l/m 4,1 km/h (1 Bft) 0 min 3,1 km/h (1 Bft)
25.08.2009 14:16 24,4 C 22,2 C 4,2 UV-I 1,6 C 62 % 81 % 46 % 1011,6 hPa 0,0 l/m 3,8 km/h (1 Bft) 0 min 2,9 km/h (1 Bft)
25.08.2009 14:20 24,4 C 22,4 C 4,4 UV-I 2,0 C 62 % 80 % 57 % 1011,6 hPa 0,0 l/m 3,1 km/h (1 Bft) 0 min 3,4 km/h (1 Bft)
25.08.2009 14:22 24,5 C 22,5 C 4,7 UV-I 2,2 C 62 % 80 % 63 % 1011,6 hPa 0,0 l/m 2,4 km/h (1 Bft) 0 min 0,0 km/h (0 Bft)
25.08.2009 14:24 24,5 C 22,7 C 4,7 UV-I 2,2 C 62 % 80 % 63 % 1011,6 hPa 0,0 l/m 2,4 km/h (1 Bft) 0 min 6,3 km/h (2 Bft)
25.08.2009 14:26 24,6 C 22,7 C 4,7 UV-I 2,2 C 62 % 80 % 63 % 1011,6 hPa 0,0 l/m 3,1 km/h (1 Bft) 0 min 8,7 km/h (2 Bft)
25.08.2009 14:30 24,6 C 22,8 C 4,5 UV-I 2,1 C 62 % 79 % 60 % 1011,6 hPa 0,0 l/m 4,6 km/h (1 Bft) 0 min 9,4 km/h (2 Bft)
25.08.2009 14:32 24,6 C 22,9 C 3,4 UV-I 1,9 C 62 % 78 % 54 % 1011,6 hPa 0,0 l/m 4,3 km/h (1 Bft) 0 min 9,4 km/h (2 Bft)
25.08.2009 14:42 24,7 C 22,9 C 1,5 UV-I 1,0 C 61 % 76 % 29 % 1012,3 hPa 0,0 l/m 2,4 km/h (1 Bft) 0 min 8,2 km/h (2 Bft)
25.08.2009 14:44 24,7 C 22,8 C 1,5 UV-I 0,9 C 61 % 76 % 26 % 1012,3 hPa 0,0 l/m 3,1 km/h (1 Bft) 0 min 7,5 km/h (2 Bft)
25.08.2009 14:46 24,7 C 22,9 C 1,5 UV-I 0,6 C 61 % 76 % 17 % 1012,3 hPa 0,0 l/m 3,6 km/h (1 Bft) 0 min 4,1 km/h (1 Bft)
25.08.2009 14:50 24,7 C 22,9 C 1,9 UV-I 0,6 C 61 % 76 % 17 % 1012,3 hPa 0,0 l/m 3,4 km/h (1 Bft) 0 min 0,0 km/h (0 Bft)
25.08.2009 14:52 24,7 C 23,0 C 2,2 UV-I 0,5 C 61 % 76 % 14 % 1012,3 hPa 0,0 l/m 2,9 km/h (1 Bft) 0 min 0,0 km/h (0 Bft)
25.08.2009 14:54 24,7 C 23,0 C 2,2 UV-I 0,7 C 61 % 76 % 20 % 1012,3 hPa 0,0 l/m 1,9 km/h (1 Bft) 0 min 3,8 km/h (1 Bft)
25.08.2009 14:56 24,7 C 23,0 C 2,2 UV-I 0,9 C 61 % 75 % 26 % 1012,0 hPa 0,0 l/m 1,4 km/h (1 Bft) 0 min 4,3 km/h (1 Bft)
25.08.2009 14:58 24,7 C 23,0 C 3,1 UV-I 1,0 C 61 % 75 % 29 % 1012,0 hPa 0,0 l/m 1,2 km/h (1 Bft) 0 min 4,6 km/h (1 Bft)
25.08.2009 15:04 24,7 C 23,0 C 1,5 UV-I 0,7 C 61 % 74 % 20 % 1012,0 hPa 0,0 l/m 1,9 km/h (1 Bft) 0 min 4,1 km/h (1 Bft)
25.08.2009 15:08 24,7 C 23,0 C 0,9 UV-I 0,3 C 61 % 75 % 9 % 1012,0 hPa 0,0 l/m 1,9 km/h (1 Bft) 0 min 4,1 km/h (1 Bft)
25.08.2009 15:10 24,7 C 23,0 C 0,9 UV-I 0,2 C 61 % 75 % 6 % 1012,0 hPa 0,0 l/m 2,2 km/h (1 Bft) 0 min 8,4 km/h (2 Bft)
25.08.2009 15:12 24,7 C 23,0 C 2,0 UV-I 0,2 C 61 % 74 % 6 % 1012,0 hPa 0,0 l/m 1,9 km/h (1 Bft) 0 min 8,4 km/h (2 Bft)
25.08.2009 15:14 24,7 C 23,0 C 2,0 UV-I 0,3 C 61 % 74 % 9 % 1012,0 hPa 0,0 l/m 1,9 km/h (1 Bft) 0 min 5,1 km/h (1 Bft)
25.08.2009 15:18 24,7 C 23,1 C 2,9 UV-I 0,4 C 61 % 74 % 11 % 1012,1 hPa 0,0 l/m 1,4 km/h (1 Bft) 0 min 5,1 km/h (1 Bft)
25.08.2009 15:20 24,7 C 23,1 C 2,9 UV-I 0,6 C 61 % 74 % 17 % 1012,1 hPa 0,0 l/m 2,2 km/h (1 Bft) 0 min 8,2 km/h (2 Bft)
25.08.2009 15:26 24,7 C 23,1 C 2,5 UV-I 0,7 C 61 % 73 % 20 % 1012,1 hPa 0,0 l/m 3,1 km/h (1 Bft) 0 min 9,6 km/h (2 Bft)
25.08.2009 15:30 24,7 C 23,0 C 2,6 UV-I 0,9 C 61 % 74 % 26 % 1012,1 hPa 0,0 l/m 2,9 km/h (1 Bft) 0 min 0,0 km/h (0 Bft)
25.08.2009 15:38 24,7 C 23,2 C 3,0 UV-I 1,0 C 61 % 73 % 29 % 1012,0 hPa 0,0 l/m 1,0 km/h (0 Bft) 0 min 5,8 km/h (2 Bft)
25.08.2009 15:42 24,7 C 23,3 C 3,3 UV-I 1,3 C 61 % 73 % 37 % 1012,0 hPa 0,0 l/m 2,2 km/h (1 Bft) 0 min 5,3 km/h (1 Bft)
25.08.2009 15:44 24,8 C 23,3 C 3,3 UV-I 1,3 C 61 % 73 % 37 % 1012,0 hPa 0,0 l/m 1,9 km/h (1 Bft) 0 min 5,8 km/h (2 Bft)
25.08.2009 15:46 24,8 C 23,2 C 3,3 UV-I 1,5 C 61 % 73 % 43 % 1012,0 hPa 0,0 l/m 2,2 km/h (1 Bft) 0 min 5,8 km/h (2 Bft)
25.08.2009 15:48 24,8 C 23,3 C 3,4 UV-I 1,6 C 61 % 72 % 46 % 1012,0 hPa 0,0 l/m 2,4 km/h (1 Bft) 0 min 4,8 km/h (1 Bft)
25.08.2009 15:52 24,8 C 23,5 C 3,4 UV-I 1,8 C 61 % 73 % 51 % 1012,0 hPa 0,0 l/m 2,4 km/h (1 Bft) 0 min 16,4 km/h (3 Bft)
25.08.2009 15:58 24,8 C 23,5 C 2,3 UV-I 1,5 C 61 % 72 % 43 % 1012,4 hPa 0,0 l/m 3,1 km/h (1 Bft) 0 min 16,4 km/h (3 Bft)
25.08.2009 16:00 24,8 C 23,5 C 2,3 UV-I 1,4 C 61 % 72 % 40 % 1012,4 hPa 0,0 l/m 3,1 km/h (1 Bft) 0 min 3,8 km/h (1 Bft)
25.08.2009 16:02 24,8 C 23,4 C 2,2 UV-I 1,4 C 61 % 71 % 40 % 1012,4 hPa 0,0 l/m 3,6 km/h (1 Bft) 0 min 16,4 km/h (3 Bft)
25.08.2009 16:04 24,9 C 23,5 C 2,2 UV-I 1,1 C 61 % 71 % 31 % 1012,4 hPa 0,0 l/m 3,4 km/h (1 Bft) 0 min 6,0 km/h (2 Bft)
25.08.2009 16:06 24,8 C 23,5 C 2,2 UV-I 1,1 C 61 % 71 % 31 % 1012,4 hPa 0,0 l/m 3,1 km/h (1 Bft) 0 min 10,8 km/h (2 Bft)
25.08.2009 16:09 24,8 C 23,5 C 2,1 UV-I 0,8 C 61 % 71 % 23 % 1012,4 hPa 0,0 l/m 3,6 km/h (1 Bft) 0 min 5,5 km/h (1 Bft)
25.08.2009 16:19 25,0 C 23,6 C 3,1 UV-I 1,6 C 61 % 71 % 46 % 1012,5 hPa 0,0 l/m 3,1 km/h (1 Bft) 0 min 6,7 km/h (2 Bft)
25.08.2009 16:22 25,0 C 23,7 C 2,5 UV-I 1,5 C 61 % 71 % 43 % 1012,5 hPa 0,0 l/m 3,1 km/h (1 Bft) 0 min 2,6 km/h (1 Bft)
25.08.2009 16:28 25,0 C 23,7 C 2,1 UV-I 1,5 C 61 % 71 % 43 % 1012,5 hPa 0,0 l/m 2,2 km/h (1 Bft) 0 min 2,6 km/h (1 Bft)
25.08.2009 16:30 25,0 C 23,7 C 2,1 UV-I 1,3 C 61 % 71 % 37 % 1012,5 hPa 0,0 l/m 2,2 km/h (1 Bft) 0 min 0,0 km/h (0 Bft)
25.08.2009 16:32 25,1 C 23,7 C 1,3 UV-I 1,1 C 60 % 70 % 31 % 1012,5 hPa 0,0 l/m 2,2 km/h (1 Bft) 0 min 7,5 km/h (2 Bft)
25.08.2009 16:34 25,0 C 23,6 C 1,3 UV-I 1,0 C 60 % 70 % 29 % 1012,5 hPa 0,0 l/m 2,4 km/h (1 Bft) 0 min 7,2 km/h (2 Bft)
25.08.2009 16:36 25,0 C 23,7 C 1,3 UV-I 0,7 C 60 % 70 % 20 % 1012,5 hPa 0,0 l/m 3,1 km/h (1 Bft) 0 min 7,2 km/h (2 Bft)
25.08.2009 16:38 25,0 C 23,6 C 1,3 UV-I 0,7 C 60 % 71 % 20 % 1012,5 hPa 0,0 l/m 3,6 km/h (1 Bft) 0 min 11,3 km/h (2 Bft)
25.08.2009 16:40 25,0 C 23,6 C 1,3 UV-I 0,7 C 60 % 71 % 20 % 1012,5 hPa 0,0 l/m 4,1 km/h (1 Bft) 0 min 11,3 km/h (2 Bft)
25.08.2009 16:42 25,0 C 23,7 C 2,3 UV-I 0,7 C 60 % 70 % 20 % 1012,5 hPa 0,0 l/m 4,8 km/h (1 Bft) 0 min 7,2 km/h (2 Bft)
25.08.2009 16:44 25,0 C 23,6 C 2,3 UV-I 0,8 C 60 % 70 % 23 % 1012,5 hPa 0,0 l/m 4,8 km/h (1 Bft) 0 min 13,5 km/h (3 Bft)
25.08.2009 16:46 25,0 C 23,7 C 2,3 UV-I 0,7 C 60 % 69 % 20 % 1012,5 hPa 0,0 l/m 5,3 km/h (1 Bft) 0 min 15,2 km/h (3 Bft)
25.08.2009 16:48 25,1 C 23,7 C 1,9 UV-I 0,7 C 60 % 69 % 20 % 1012,5 hPa 0,0 l/m 5,1 km/h (1 Bft) 0 min 7,5 km/h (2 Bft)
25.08.2009 16:49 25,1 C 23,6 C 1,9 UV-I 0,8 C 60 % 69 % 23 % 1012,5 hPa 0,0 l/m 4,8 km/h (1 Bft) 0 min 4,1 km/h (1 Bft)
25.08.2009 16:54 25,1 C 23,6 C 2,0 UV-I 1,0 C 60 % 70 % 29 % 1012,5 hPa 0,0 l/m 3,8 km/h (1 Bft) 0 min 2,9 km/h (1 Bft)
25.08.2009 18:56 24,8 C 22,2 C 0,3 UV-I 0,2 C 60 % 72 % 6 % 1012,7 hPa 0,0 l/m 1,0 km/h (0 Bft) 0 min 2,6 km/h (1 Bft)
25.08.2009 18:58 24,8 C 22,3 C 0,6 UV-I 0,1 C 60 % 71 % 3 % 1012,7 hPa 0,0 l/m 0,7 km/h (0 Bft) 0 min 0,0 km/h (0 Bft)
25.08.2009 19:00 24,8 C 22,3 C 0,6 UV-I 0,1 C 60 % 71 % 3 % 1012,7 hPa 0,0 l/m 1,0 km/h (0 Bft) 0 min 0,0 km/h (0 Bft)
25.08.2009 19:06 24,8 C 22,1 C 0,4 UV-I 0,1 C 60 % 71 % 3 % 1012,7 hPa 0,0 l/m 0,7 km/h (0 Bft) 0 min 0,0 km/h (0 Bft)
25.08.2009 19:08 24,8 C 22,1 C 0,3 UV-I 0,0 C 60 % 71 % 0 % 1012,7 hPa 0,0 l/m 0,7 km/h (0 Bft) 0 min 2,9 km/h (1 Bft)
25.08.2009 19:10 24,8 C 22,1 C 0,3 UV-I 0,0 C 60 % 72 % 0 % 1012,7 hPa 0,0 l/m 0,5 km/h (0 Bft) 0 min 0,0 km/h (0 Bft)
25.08.2009 19:12 24,8 C 22,1 C 0,4 UV-I 0,0 C 60 % 72 % 0 % 1012,7 hPa 0,0 l/m 0,7 km/h (0 Bft) 0 min 3,8 km/h (1 Bft)
25.08.2009 19:14 24,7 C 22,1 C 0,4 UV-I 0,0 C 60 % 72 % 0 % 1012,7 hPa 0,0 l/m 0,7 km/h (0 Bft) 0 min 3,8 km/h (1 Bft)
25.08.2009 19:16 24,7 C 22,1 C 0,4 UV-I 0,0 C 60 % 72 % 0 % 1012,5 hPa 0,0 l/m 1,0 km/h (0 Bft) 0 min 2,4 km/h (1 Bft)
25.08.2009 19:20 24,7 C 22,0 C 0,4 UV-I 0,0 C 60 % 72 % 0 % 1012,5 hPa 0,0 l/m 1,9 km/h (1 Bft) 0 min 4,8 km/h (1 Bft)
25.08.2009 19:22 24,7 C 21,9 C 0,4 UV-I 0,0 C 60 % 72 % 0 % 1012,5 hPa 0,0 l/m 1,9 km/h (1 Bft) 0 min 4,8 km/h (1 Bft)
25.08.2009 19:24 24,7 C 21,9 C 0,4 UV-I 0,0 C 60 % 72 % 0 % 1012,5 hPa 0,0 l/m 2,2 km/h (1 Bft) 0 min 6,5 km/h (2 Bft)
25.08.2009 19:28 24,7 C 21,8 C 0,3 UV-I 0,0 C 60 % 72 % 0 % 1012,5 hPa 0,0 l/m 1,9 km/h (1 Bft) 0 min 0,0 km/h (0 Bft)
25.08.2009 19:34 24,6 C 21,8 C 0,1 UV-I 0,0 C 60 % 73 % 0 % 1012,5 hPa 0,0 l/m 0,7 km/h (0 Bft) 0 min 0,0 km/h (0 Bft)
25.08.2009 19:38 24,6 C 21,7 C 0,1 UV-I 0,0 C 60 % 73 % 0 % 1012,6 hPa 0,0 l/m 0,0 km/h (0 Bft) 0 min 0,0 km/h (0 Bft)
25.08.2009 19:42 24,6 C 21,7 C 0,1 UV-I 0,0 C 60 % 72 % 0 % 1012,6 hPa 0,0 l/m 1,0 km/h (0 Bft) 0 min 4,1 km/h (1 Bft)
25.08.2009 19:46 24,6 C 21,6 C 0,1 UV-I 0,0 C 60 % 72 % 0 % 1012,6 hPa 0,0 l/m 1,9 km/h (1 Bft) 0 min 8,2 km/h (2 Bft)
25.08.2009 19:50 24,6 C 21,5 C 0,0 UV-I 0,0 C 60 % 72 % 0 % 1012,6 hPa 0,0 l/m 3,1 km/h (1 Bft) 0 min 8,2 km/h (2 Bft)
25.08.2009 19:54 24,5 C 21,5 C 0,0 UV-I 0,0 C 60 % 73 % 0 % 1012,6 hPa 0,0 l/m 2,6 km/h (1 Bft) 0 min 4,1 km/h (1 Bft)
25.08.2009 19:59 24,5 C 21,4 C 0,0 UV-I 0,0 C 60 % 73 % 0 % 1013,1 hPa 0,0 l/m 2,2 km/h (1 Bft) 0 min 0,0 km/h (0 Bft)
25.08.2009 20:04 24,5 C 21,2 C 0,0 UV-I 0,0 C 59 % 73 % 0 % 1013,1 hPa 0,0 l/m 2,4 km/h (1 Bft) 0 min 0,0 km/h (0 Bft)
25.08.2009 20:09 24,4 C 21,2 C 0,0 UV-I 0,0 C 59 % 73 % 0 % 1013,1 hPa 0,0 l/m 2,4 km/h (1 Bft) 0 min 0,0 km/h (0 Bft)
25.08.2009 20:14 24,4 C 21,1 C 0,0 UV-I 0,0 C 60 % 74 % 0 % 1013,1 hPa 0,0 l/m 1,9 km/h (1 Bft) 0 min 5,3 km/h (1 Bft)
25.08.2009 20:19 24,4 C 21,1 C 0,0 UV-I 0,0 C 60 % 74 % 0 % 1013,2 hPa 0,0 l/m 0,7 km/h (0 Bft) 0 min 3,1 km/h (1 Bft)
25.08.2009 20:24 24,4 C 21,0 C 0,0 UV-I 0,0 C 60 % 75 % 0 % 1013,2 hPa 0,0 l/m 1,0 km/h (0 Bft) 0 min 2,9 km/h (1 Bft)
25.08.2009 20:29 24,2 C 20,9 C 0,0 UV-I 0,0 C 60 % 75 % 0 % 1013,2 hPa 0,0 l/m 2,2 km/h (1 Bft) 0 min 0,0 km/h (0 Bft)
25.08.2009 20:34 24,2 C 20,7 C 0,0 UV-I 0,0 C 60 % 75 % 0 % 1013,2 hPa 0,0 l/m 2,2 km/h (1 Bft) 0 min 0,0 km/h (0 Bft)
25.08.2009 20:39 24,2 C 20,7 C 0,0 UV-I 0,0 C 60 % 75 % 0 % 1013,6 hPa 0,0 l/m 1,0 km/h (0 Bft) 0 min 4,3 km/h (1 Bft)
25.08.2009 20:44 24,2 C 20,7 C 0,0 UV-I 0,0 C 60 % 75 % 0 % 1013,6 hPa 0,0 l/m 0,2 km/h (0 Bft) 0 min 0,0 km/h (0 Bft)
25.08.2009 20:49 24,2 C 20,4 C 0,0 UV-I 0,0 C 60 % 75 % 0 % 1013,6 hPa 0,0 l/m 2,2 km/h (1 Bft) 0 min 5,3 km/h (1 Bft)
25.08.2009 20:54 24,2 C 20,5 C 0,0 UV-I 0,0 C 60 % 76 % 0 % 1013,6 hPa 0,0 l/m 3,1 km/h (1 Bft) 0 min 5,5 km/h (1 Bft)
25.08.2009 20:59 24,2 C 20,3 C 0,0 UV-I 0,0 C 60 % 76 % 0 % 1013,9 hPa 0,0 l/m 2,4 km/h (1 Bft) 0 min 0,0 km/h (0 Bft)
25.08.2009 21:04 24,1 C 20,3 C 0,0 UV-I 0,0 C 60 % 76 % 0 % 1013,9 hPa 0,0 l/m 1,9 km/h (1 Bft) 0 min 6,3 km/h (2 Bft)
25.08.2009 21:09 24,1 C 20,1 C 0,0 UV-I 0,0 C 60 % 76 % 0 % 1013,9 hPa 0,0 l/m 2,9 km/h (1 Bft) 0 min 5,8 km/h (2 Bft)
25.08.2009 21:14 24,1 C 20,1 C 0,0 UV-I 0,0 C 60 % 76 % 0 % 1013,9 hPa 0,0 l/m 3,4 km/h (1 Bft) 0 min 6,0 km/h (2 Bft)
25.08.2009 21:19 24,0 C 20,1 C 0,0 UV-I 0,0 C 60 % 76 % 0 % 1014,1 hPa 0,0 l/m 2,4 km/h (1 Bft) 0 min 2,4 km/h (1 Bft)
25.08.2009 21:24 24,0 C 20,0 C 0,0 UV-I 0,0 C 60 % 76 % 0 % 1014,1 hPa 0,0 l/m 3,8 km/h (1 Bft) 0 min 7,9 km/h (2 Bft)
25.08.2009 21:29 24,0 C 19,9 C 0,0 UV-I 0,0 C 60 % 76 % 0 % 1014,1 hPa 0,0 l/m 3,4 km/h (1 Bft) 0 min 4,1 km/h (1 Bft)
25.08.2009 21:34 24,0 C 19,9 C 0,0 UV-I 0,0 C 60 % 76 % 0 % 1014,1 hPa 0,0 l/m 2,4 km/h (1 Bft) 0 min 6,0 km/h (2 Bft)
25.08.2009 21:39 23,9 C 19,7 C 0,0 UV-I 0,0 C 60 % 76 % 0 % 1014,2 hPa 0,0 l/m 1,9 km/h (1 Bft) 0 min 0,0 km/h (0 Bft)
25.08.2009 21:44 23,9 C 19,7 C 0,0 UV-I 0,0 C 60 % 76 % 0 % 1014,2 hPa 0,0 l/m 1,7 km/h (1 Bft) 0 min 0,0 km/h (0 Bft)
25.08.2009 21:49 23,9 C 19,7 C 0,0 UV-I 0,0 C 60 % 76 % 0 % 1014,2 hPa 0,0 l/m 0,5 km/h (0 Bft) 0 min 0,0 km/h (0 Bft)
25.08.2009 21:54 23,9 C 19,6 C 0,0 UV-I 0,0 C 60 % 76 % 0 % 1014,2 hPa 0,0 l/m 0,2 km/h (0 Bft) 0 min 0,0 km/h (0 Bft)
25.08.2009 21:59 23,8 C 19,5 C 0,0 UV-I 0,0 C 60 % 77 % 0 % 1014,5 hPa 0,0 l/m 0,0 km/h (0 Bft) 0 min 0,0 km/h (0 Bft)
25.08.2009 22:04 23,8 C 19,5 C 0,0 UV-I 0,0 C 60 % 77 % 0 % 1014,5 hPa 0,0 l/m 0,0 km/h (0 Bft) 0 min 0,0 km/h (0 Bft)
25.08.2009 22:09 23,8 C 19,3 C 0,0 UV-I 0,0 C 60 % 77 % 0 % 1014,5 hPa 0,0 l/m 0,2 km/h (0 Bft) 0 min 3,4 km/h (1 Bft)
25.08.2009 22:14 23,8 C 19,2 C 0,0 UV-I 0,0 C 60 % 77 % 0 % 1014,5 hPa 0,0 l/m 0,5 km/h (0 Bft) 0 min 0,0 km/h (0 Bft)
25.08.2009 22:19 23,8 C 19,2 C 0,0 UV-I 0,0 C 60 % 77 % 0 % 1014,8 hPa 0,0 l/m 0,5 km/h (0 Bft) 0 min 3,8 km/h (1 Bft)
25.08.2009 22:24 23,7 C 19,1 C 0,0 UV-I 0,0 C 60 % 77 % 0 % 1014,8 hPa 0,0 l/m 0,2 km/h (0 Bft) 0 min 0,0 km/h (0 Bft)
25.08.2009 22:29 23,7 C 19,1 C 0,0 UV-I 0,0 C 60 % 78 % 0 % 1014,8 hPa 0,0 l/m 1,0 km/h (0 Bft) 0 min 0,0 km/h (0 Bft)
25.08.2009 22:34 23,7 C 19,0 C 0,0 UV-I 0,0 C 60 % 78 % 0 % 1014,8 hPa 0,0 l/m 0,7 km/h (0 Bft) 0 min 3,1 km/h (1 Bft)
25.08.2009 22:39 23,7 C 18,8 C 0,0 UV-I 0,0 C 60 % 78 % 0 % 1015,0 hPa 0,0 l/m 0,2 km/h (0 Bft) 0 min 0,0 km/h (0 Bft)
25.08.2009 22:44 23,7 C 18,7 C 0,0 UV-I 0,0 C 60 % 78 % 0 % 1015,0 hPa 0,0 l/m 0,5 km/h (0 Bft) 0 min 0,0 km/h (0 Bft)
25.08.2009 22:49 23,7 C 18,7 C 0,0 UV-I 0,0 C 60 % 78 % 0 % 1015,0 hPa 0,0 l/m 0,2 km/h (0 Bft) 0 min 0,0 km/h (0 Bft)
25.08.2009 22:54 23,6 C 18,5 C 0,0 UV-I 0,0 C 60 % 79 % 0 % 1015,0 hPa 0,0 l/m 0,0 km/h (0 Bft) 0 min 0,0 km/h (0 Bft)
25.08.2009 22:59 23,6 C 18,4 C 0,0 UV-I 0,0 C 60 % 79 % 0 % 1014,9 hPa 0,0 l/m 0,0 km/h (0 Bft) 0 min 0,0 km/h (0 Bft)
25.08.2009 23:04 23,6 C 18,2 C 0,0 UV-I 0,0 C 60 % 79 % 0 % 1014,9 hPa 0,0 l/m 0,0 km/h (0 Bft) 0 min 0,0 km/h (0 Bft)
25.08.2009 23:09 23,6 C 18,1 C 0,0 UV-I 0,0 C 60 % 79 % 0 % 1014,9 hPa 0,0 l/m 0,0 km/h (0 Bft) 0 min 0,0 km/h (0 Bft)
25.08.2009 23:14 23,6 C 18,1 C 0,0 UV-I 0,0 C 60 % 79 % 0 % 1014,9 hPa 0,0 l/m 0,0 km/h (0 Bft) 0 min 0,0 km/h (0 Bft)
25.08.2009 23:19 23,5 C 17,9 C 0,0 UV-I 0,0 C 60 % 79 % 0 % 1015,1 hPa 0,0 l/m 0,0 km/h (0 Bft) 0 min 0,0 km/h (0 Bft)
25.08.2009 23:24 23,5 C 17,7 C 0,0 UV-I 0,0 C 60 % 80 % 0 % 1015,1 hPa 0,0 l/m 0,0 km/h (0 Bft) 0 min 0,0 km/h (0 Bft)
25.08.2009 23:29 23,5 C 17,5 C 0,0 UV-I 0,0 C 60 % 80 % 0 % 1015,1 hPa 0,0 l/m 0,0 km/h (0 Bft) 0 min 0,0 km/h (0 Bft)
25.08.2009 23:34 23,5 C 17,5 C 0,0 UV-I 0,0 C 60 % 81 % 0 % 1015,1 hPa 0,0 l/m 0,0 km/h (0 Bft) 0 min 0,0 km/h (0 Bft)
25.08.2009 23:39 23,4 C 17,3 C 0,0 UV-I 0,0 C 60 % 81 % 0 % 1014,9 hPa 0,0 l/m 0,0 km/h (0 Bft) 0 min 0,0 km/h (0 Bft)
25.08.2009 23:44 23,4 C 17,2 C 0,0 UV-I 0,0 C 60 % 81 % 0 % 1014,9 hPa 0,0 l/m 0,0 km/h (0 Bft) 0 min 0,0 km/h (0 Bft)
25.08.2009 23:49 23,2 C 17,1 C 0,0 UV-I 0,0 C 60 % 82 % 0 % 1014,9 hPa 0,0 l/m 0,0 km/h (0 Bft) 0 min 0,0 km/h (0 Bft)
25.08.2009 23:54 23,4 C 16,9 C 0,0 UV-I 0,0 C 60 % 82 % 0 % 1014,9 hPa 0,0 l/m 0,0 km/h (0 Bft) 0 min 0,0 km/h (0 Bft)
25.08.2009 23:59 23,2 C 16,7 C 0,0 UV-I 0,0 C 60 % 82 % 0 % 1014,8 hPa 0,0 l/m 0,0 km/h (0 Bft) 0 min 0,0 km/h (0 Bft)
_ Min-Zeit 23:49 23:59 00:00 00:00 00:00 00:00 00:00 02:18 - 00:00 - 00:00
Minimum _ 23,2 C 16,7 C 0,0 UV-I 0,0 C 51 % 58 % 0 % 1007,9 hPa - 0,0 km/h (0 Bft) - 0,0 km/h (0 Bft)
_ Max-Zeit 16:32 16:22 14:22 14:22 11:24 11:30 14:22 23:19 04:56 12:42 00:00 15:52
Maximum _ 25,1 C 23,7 C 4,7 UV-I 2,2 C 65 % 91 % 63 % 1015,1 hPa 0,2 l/m 5,5 km/h
N (1 Bft)
0 min 16,4 km/h
N-NO (3 Bft)
Durchschnitt _ 24,2 C 20,2 C 0,6 UV-I 0,3 C 59 % 78 % 7 % 1011,3 hPa #2,8 l/m 1,2 km/h (1 Bft) #0 min. 2,7 km/h (1 Bft)
© 2012 W. Hausmann